Wetterdaten: aktuell Dienstag, 18.06.2019 21:50
Datum Zeit Temp. 2m Temp. 5cm Feuchte 2m Luftdruck Regen Wind Richtung Richtung Taupunkt Windchill Windben
18.06.2019 21:50 19,7 C 18,3 C 59 % 1011,4 hPa 0,0 l/m 14,0 km/h (3 Bft) O 90 11,5 C 17,1 C 20,0 km/h (4 Bft)
18.06.2019 21:48 19,9 C 18,3 C 59 % 1011,4 hPa 0,0 l/m 14,5 km/h (3 Bft) S 180 11,6 C 17,3 C 20,0 km/h (4 Bft)
18.06.2019 21:46 19,9 C 18,6 C 59 % 1011,4 hPa 0,0 l/m 14,7 km/h (3 Bft) S 180 11,6 C 17,2 C 17,1 km/h (3 Bft)
18.06.2019 21:44 19,9 C 18,8 C 59 % 1011,4 hPa 0,0 l/m 13,8 km/h (3 Bft) S-SO 157 11,6 C 17,4 C 21,0 km/h (4 Bft)
18.06.2019 21:42 19,9 C 18,5 C 59 % 1011,4 hPa 0,0 l/m 13,8 km/h (3 Bft) S-SO 157 11,6 C 17,4 C 24,9 km/h (4 Bft)
18.06.2019 21:40 19,9 C 18,5 C 59 % 1011,4 hPa 0,0 l/m 13,3 km/h (3 Bft) S 180 11,6 C 17,6 C 24,9 km/h (4 Bft)
18.06.2019 21:38 19,9 C 18,5 C 59 % 1011,4 hPa 0,0 l/m 13,3 km/h (3 Bft) S 180 11,6 C 17,6 C 16,7 km/h (3 Bft)
18.06.2019 21:36 19,9 C 18,4 C 59 % 1011,4 hPa 0,0 l/m 13,0 km/h (3 Bft) S-SO 157 11,6 C 17,6 C 7,0 km/h (2 Bft)
18.06.2019 21:34 20,1 C 18,9 C 58 % 1011,4 hPa 0,0 l/m 13,0 km/h (3 Bft) S 180 11,6 C 17,9 C 21,2 km/h (4 Bft)
18.06.2019 21:32 20,1 C 18,9 C 58 % 1011,4 hPa 0,0 l/m 13,0 km/h (3 Bft) S-SW 202 11,6 C 17,9 C 21,2 km/h (4 Bft)
18.06.2019 21:30 20,1 C 18,9 C 59 % 1011,4 hPa 0,0 l/m 12,1 km/h (2 Bft) S-SW 202 11,8 C 18,1 C 22,9 km/h (4 Bft)
18.06.2019 21:28 20,0 C 18,7 C 59 % 1011,4 hPa 0,0 l/m 11,8 km/h (2 Bft) S 180 11,7 C 18,1 C 22,9 km/h (4 Bft)
18.06.2019 21:26 19,9 C 18,6 C 59 % 1011,4 hPa 0,0 l/m 10,6 km/h (2 Bft) S-SO 157 11,6 C 18,3 C 18,8 km/h (3 Bft)
18.06.2019 21:24 19,9 C 18,7 C 59 % 1011,4 hPa 0,0 l/m 10,6 km/h (2 Bft) S 180 11,6 C 18,3 C 16,9 km/h (3 Bft)
18.06.2019 21:22 19,9 C 18,4 C 59 % 1011,4 hPa 0,0 l/m 10,9 km/h (2 Bft) S 180 11,6 C 18,2 C 16,9 km/h (3 Bft)
18.06.2019 21:20 19,8 C 18,3 C 60 % 1011,4 hPa 0,0 l/m 10,4 km/h (2 Bft) SW 225 11,8 C 18,3 C 17,1 km/h (3 Bft)
18.06.2019 21:18 19,8 C 18,1 C 60 % 1011,4 hPa 0,0 l/m 11,1 km/h (2 Bft) S 180 11,8 C 18,1 C 17,1 km/h (3 Bft)
18.06.2019 21:16 19,9 C 18,3 C 60 % 1011,4 hPa 0,0 l/m 10,9 km/h (2 Bft) SO 135 11,9 C 18,2 C 16,2 km/h (3 Bft)
18.06.2019 21:14 20,0 C 18,6 C 59 % 1011,3 hPa 0,0 l/m 11,6 km/h (2 Bft) S-SW 202 11,7 C 18,1 C 20,3 km/h (4 Bft)
18.06.2019 21:12 20,0 C 18,7 C 60 % 1011,3 hPa 0,0 l/m 12,3 km/h (3 Bft) S 180 12,0 C 17,9 C 20,3 km/h (4 Bft)
18.06.2019 21:10 20,0 C 18,7 C 60 % 1011,3 hPa 0,0 l/m 12,3 km/h (3 Bft) W 270 12,0 C 17,9 C 22,0 km/h (4 Bft)
18.06.2019 21:08 20,0 C 18,7 C 60 % 1011,3 hPa 0,0 l/m 11,3 km/h (2 Bft) S-SO 157 12,0 C 18,2 C 22,0 km/h (4 Bft)
18.06.2019 21:06 20,1 C 18,8 C 60 % 1011,3 hPa 0,0 l/m 12,1 km/h (2 Bft) S 180 12,1 C 18,1 C 29,9 km/h (5 Bft)
18.06.2019 21:04 20,1 C 18,5 C 60 % 1011,3 hPa 0,0 l/m 11,3 km/h (2 Bft) S 180 12,1 C 18,3 C 29,9 km/h (5 Bft)
18.06.2019 21:02 20,1 C 18,4 C 60 % 1011,3 hPa 0,0 l/m 10,9 km/h (2 Bft) S 180 12,1 C 18,5 C 27,0 km/h (4 Bft)
18.06.2019 21:00 20,1 C 18,5 C 60 % 1011,3 hPa 0,0 l/m 9,9 km/h (2 Bft) S 180 12,1 C 18,8 C 27,0 km/h (4 Bft)
18.06.2019 20:58 20,1 C 18,8 C 60 % 1011,3 hPa 0,0 l/m 7,7 km/h (2 Bft) S-SW 202 12,1 C 19,6 C 27,8 km/h (4 Bft)
18.06.2019 20:56 20,1 C 18,6 C 61 % 1011,3 hPa 0,0 l/m 7,7 km/h (2 Bft) SW 225 12,3 C 19,6 C 27,8 km/h (4 Bft)
18.06.2019 20:54 20,1 C 18,5 C 61 % 1011,2 hPa 0,0 l/m 6,0 km/h (2 Bft) SW 225 12,3 C 20,1 C 16,7 km/h (3 Bft)
18.06.2019 20:52 20,1 C 18,5 C 61 % 1011,2 hPa 0,0 l/m 5,1 km/h (1 Bft) S-SO 157 12,3 C 20,1 C 16,7 km/h (3 Bft)
18.06.2019 20:50 20,1 C 18,2 C 61 % 1011,2 hPa 0,0 l/m 4,6 km/h (1 Bft) S 180 12,3 C 20,1 C 15,7 km/h (3 Bft)
18.06.2019 20:48 20,2 C 18,5 C 61 % 1011,2 hPa 0,0 l/m 5,1 km/h (1 Bft) NO 45 12,4 C 20,2 C 8,0 km/h (2 Bft)
18.06.2019 20:46 20,3 C 18,9 C 61 % 1011,2 hPa 0,0 l/m 7,0 km/h (2 Bft) SO 135 12,5 C 20,1 C 8,0 km/h (2 Bft)
18.06.2019 20:44 20,3 C 18,9 C 61 % 1011,2 hPa 0,0 l/m 8,0 km/h (2 Bft) S-SO 157 12,5 C 19,7 C 3,9 km/h (1 Bft)
18.06.2019 20:42 20,3 C 18,9 C 61 % 1011,2 hPa 0,0 l/m 8,2 km/h (2 Bft) W 270 12,5 C 19,6 C 12,6 km/h (3 Bft)
18.06.2019 20:40 20,4 C 19,1 C 60 % 1011,2 hPa 0,0 l/m 10,1 km/h (2 Bft) SO 135 12,4 C 19,1 C 12,6 km/h (3 Bft)
18.06.2019 20:38 20,4 C 19,2 C 60 % 1011,2 hPa 0,0 l/m 11,6 km/h (2 Bft) S-SO 157 12,4 C 18,6 C 15,2 km/h (3 Bft)
18.06.2019 20:36 20,4 C 19,2 C 60 % 1011,2 hPa 0,0 l/m 11,1 km/h (2 Bft) S-SO 157 12,4 C 18,7 C 15,7 km/h (3 Bft)
18.06.2019 20:34 20,4 C 19,2 C 61 % 1011,3 hPa 0,0 l/m 10,9 km/h (2 Bft) S 180 12,6 C 18,8 C 15,7 km/h (3 Bft)
18.06.2019 20:32 20,4 C 19,4 C 61 % 1011,3 hPa 0,0 l/m 12,3 km/h (3 Bft) SW 225 12,6 C 18,4 C 28,0 km/h (4 Bft)
18.06.2019 20:30 20,4 C 19,5 C 61 % 1011,3 hPa 0,0 l/m 12,1 km/h (2 Bft) SW 225 12,6 C 18,5 C 28,0 km/h (4 Bft)
18.06.2019 20:28 20,4 C 19,4 C 61 % 1011,3 hPa 0,0 l/m 9,7 km/h (2 Bft) SO 135 12,6 C 19,2 C 18,8 km/h (3 Bft)
18.06.2019 20:26 20,4 C 19,5 C 61 % 1011,3 hPa 0,0 l/m 8,7 km/h (2 Bft) SO 135 12,6 C 19,5 C 14,7 km/h (3 Bft)
18.06.2019 20:24 20,4 C 19,5 C 61 % 1011,3 hPa 0,0 l/m 8,2 km/h (2 Bft) N-NO 22 12,6 C 19,7 C 14,7 km/h (3 Bft)
18.06.2019 20:22 20,4 C 19,5 C 61 % 1011,3 hPa 0,0 l/m 7,7 km/h (2 Bft) SW 225 12,6 C 19,9 C 9,4 km/h (2 Bft)
18.06.2019 20:20 20,4 C 19,4 C 61 % 1011,3 hPa 0,0 l/m 7,2 km/h (2 Bft) O-NO 67 12,6 C 20,1 C 7,7 km/h (2 Bft)
18.06.2019 20:18 20,4 C 19,6 C 61 % 1011,3 hPa 0,0 l/m 7,0 km/h (2 Bft) N-NW 337 12,6 C 20,2 C 8,7 km/h (2 Bft)
18.06.2019 20:16 20,4 C 19,8 C 61 % 1011,3 hPa 0,0 l/m 7,5 km/h (2 Bft) S-SO 157 12,6 C 20,0 C 16,9 km/h (3 Bft)
18.06.2019 20:14 20,4 C 19,6 C 61 % 1011,4 hPa 0,0 l/m 7,0 km/h (2 Bft) NO 45 12,6 C 20,2 C 16,9 km/h (3 Bft)
18.06.2019 20:12 20,4 C 19,6 C 62 % 1011,4 hPa 0,0 l/m 6,8 km/h (2 Bft) S 180 12,9 C 20,2 C 13,8 km/h (3 Bft)
18.06.2019 20:10 20,4 C 19,5 C 62 % 1011,4 hPa 0,0 l/m 6,0 km/h (2 Bft) S 180 12,9 C 20,4 C 10,1 km/h (2 Bft)
18.06.2019 20:08 20,4 C 19,5 C 62 % 1011,4 hPa 0,0 l/m 8,0 km/h (2 Bft) S 180 12,9 C 19,8 C 9,2 km/h (2 Bft)
18.06.2019 20:06 20,4 C 19,5 C 62 % 1011,4 hPa 0,0 l/m 8,4 km/h (2 Bft) O-SO 112 12,9 C 19,6 C 7,2 km/h (2 Bft)
18.06.2019 20:04 20,3 C 19,4 C 62 % 1011,4 hPa 0,0 l/m 9,2 km/h (2 Bft) O-SO 112 12,8 C 19,2 C 4,3 km/h (1 Bft)
18.06.2019 20:02 20,4 C 19,5 C 62 % 1011,4 hPa 0,0 l/m 9,4 km/h (2 Bft) N-NW 337 12,9 C 19,3 C 12,6 km/h (3 Bft)
18.06.2019 20:00 20,4 C 19,5 C 62 % 1011,4 hPa 0,0 l/m 9,2 km/h (2 Bft) W-SW 247 12,9 C 19,3 C 27,8 km/h (4 Bft)
18.06.2019 19:58 20,4 C 19,4 C 62 % 1011,4 hPa 0,0 l/m 9,2 km/h (2 Bft) SW 225 12,9 C 19,3 C 27,8 km/h (4 Bft)
18.06.2019 19:56 20,3 C 19,5 C 62 % 1011,4 hPa 0,0 l/m 8,9 km/h (2 Bft) S-SO 157 12,8 C 19,3 C 13,8 km/h (3 Bft)
18.06.2019 19:54 20,3 C 19,4 C 62 % 1011,4 hPa 0,0 l/m 9,2 km/h (2 Bft) SW 225 12,8 C 19,2 C 16,2 km/h (3 Bft)
18.06.2019 19:52 20,3 C 19,4 C 62 % 1011,4 hPa 0,0 l/m 9,2 km/h (2 Bft) S 180 12,8 C 19,2 C 16,2 km/h (3 Bft)
18.06.2019 19:50 20,3 C 19,3 C 62 % 1011,4 hPa 0,0 l/m 9,9 km/h (2 Bft) O-SO 112 12,8 C 19,0 C 18,6 km/h (3 Bft)
18.06.2019 19:48 20,3 C 19,3 C 62 % 1011,4 hPa 0,0 l/m 10,6 km/h (2 Bft) S 180 12,8 C 18,8 C 18,6 km/h (3 Bft)
18.06.2019 19:46 20,3 C 19,3 C 62 % 1011,4 hPa 0,0 l/m 8,9 km/h (2 Bft) SO 135 12,8 C 19,3 C 24,6 km/h (4 Bft)
18.06.2019 19:44 20,3 C 19,4 C 62 % 1011,4 hPa 0,0 l/m 7,2 km/h (2 Bft) SW 225 12,8 C 20,0 C 24,6 km/h (4 Bft)
18.06.2019 19:42 20,4 C 19,4 C 62 % 1011,4 hPa 0,0 l/m 7,5 km/h (2 Bft) S-SO 157 12,9 C 20,0 C 14,0 km/h (3 Bft)
18.06.2019 19:40 20,4 C 19,4 C 62 % 1011,4 hPa 0,0 l/m 8,0 km/h (2 Bft) SW 225 12,9 C 19,8 C 14,0 km/h (3 Bft)
18.06.2019 19:38 20,4 C 19,4 C 62 % 1011,4 hPa 0,0 l/m 8,7 km/h (2 Bft) W-SW 247 12,9 C 19,5 C 7,7 km/h (2 Bft)
18.06.2019 19:36 20,4 C 19,4 C 62 % 1011,4 hPa 0,0 l/m 10,1 km/h (2 Bft) SW 225 12,9 C 19,1 C 6,3 km/h (2 Bft)
18.06.2019 19:34 20,3 C 19,3 C 62 % 1011,4 hPa 0,0 l/m 12,1 km/h (2 Bft) SO 135 12,8 C 18,3 C 12,3 km/h (3 Bft)
18.06.2019 19:32 20,3 C 19,3 C 61 % 1011,4 hPa 0,0 l/m 14,5 km/h (3 Bft) S-SO 157 12,5 C 17,7 C 17,6 km/h (3 Bft)
18.06.2019 19:30 20,4 C 19,3 C 61 % 1011,4 hPa 0,0 l/m 15,2 km/h (3 Bft) W-SW 247 12,6 C 17,7 C 17,6 km/h (3 Bft)
18.06.2019 19:28 20,4 C 19,5 C 61 % 1011,4 hPa 0,0 l/m 16,2 km/h (3 Bft) S 180 12,6 C 17,5 C 16,9 km/h (3 Bft)
18.06.2019 19:26 20,4 C 19,5 C 61 % 1011,4 hPa 0,0 l/m 17,4 km/h (3 Bft) S-SO 157 12,6 C 17,2 C 16,9 km/h (3 Bft)
18.06.2019 19:24 20,4 C 19,5 C 61 % 1011,4 hPa 0,0 l/m 17,9 km/h (3 Bft) S-SO 157 12,6 C 17,1 C 16,9 km/h (3 Bft)
18.06.2019 19:22 20,4 C 19,5 C 61 % 1011,4 hPa 0,0 l/m 17,4 km/h (3 Bft) S 180 12,6 C 17,2 C 27,0 km/h (4 Bft)
18.06.2019 19:20 20,4 C 19,5 C 61 % 1011,4 hPa 0,0 l/m 17,4 km/h (3 Bft) S 180 12,6 C 17,2 C 27,0 km/h (4 Bft)
18.06.2019 19:18 20,4 C 19,5 C 61 % 1011,4 hPa 0,0 l/m 16,7 km/h (3 Bft) SW 225 12,6 C 17,4 C 25,1 km/h (4 Bft)
18.06.2019 19:16 20,4 C 19,5 C 61 % 1011,4 hPa 0,0 l/m 14,7 km/h (3 Bft) SW 225 12,6 C 17,8 C 39,1 km/h (6 Bft)
18.06.2019 19:14 20,4 C 19,3 C 61 % 1011,6 hPa 0,0 l/m 11,6 km/h (2 Bft) S 180 12,6 C 18,6 C 18,6 km/h (3 Bft)
18.06.2019 19:12 20,4 C 19,4 C 61 % 1011,6 hPa 0,0 l/m 12,1 km/h (2 Bft) N 360 12,6 C 18,5 C 16,7 km/h (3 Bft)
18.06.2019 19:10 20,6 C 19,4 C 61 % 1011,6 hPa 0,0 l/m 10,9 km/h (2 Bft) S 180 12,8 C 19,0 C 16,7 km/h (3 Bft)
18.06.2019 19:08 20,6 C 19,4 C 61 % 1011,6 hPa 0,0 l/m 10,9 km/h (2 Bft) S-SO 157 12,8 C 19,0 C 14,7 km/h (3 Bft)
18.06.2019 19:06 20,6 C 19,5 C 61 % 1011,6 hPa 0,0 l/m 10,6 km/h (2 Bft) S 180 12,8 C 19,1 C 14,0 km/h (3 Bft)
18.06.2019 19:04 20,6 C 19,5 C 61 % 1011,6 hPa 0,0 l/m 11,8 km/h (2 Bft) S 180 12,8 C 18,8 C 19,3 km/h (3 Bft)
18.06.2019 19:02 20,7 C 19,5 C 61 % 1011,6 hPa 0,0 l/m 13,3 km/h (3 Bft) S 180 12,9 C 18,5 C 19,3 km/h (3 Bft)
18.06.2019 19:00 20,7 C 19,6 C 61 % 1011,6 hPa 0,0 l/m 13,8 km/h (3 Bft) S-SO 157 12,9 C 18,4 C 20,8 km/h (4 Bft)
18.06.2019 18:58 20,7 C 19,7 C 61 % 1011,6 hPa 0,0 l/m 13,8 km/h (3 Bft) S 180 12,9 C 18,4 C 20,8 km/h (4 Bft)
18.06.2019 18:56 20,8 C 19,8 C 61 % 1011,6 hPa 0,0 l/m 13,5 km/h (3 Bft) SO 135 13,0 C 18,6 C 30,2 km/h (5 Bft)
18.06.2019 18:54 20,8 C 19,9 C 61 % 1011,6 hPa 0,0 l/m 13,5 km/h (3 Bft) S-SO 157 13,0 C 18,6 C 30,2 km/h (5 Bft)
18.06.2019 18:52 20,8 C 20,0 C 62 % 1011,6 hPa 0,0 l/m 12,3 km/h (3 Bft) S-SW 202 13,2 C 18,9 C 24,9 km/h (4 Bft)
18.06.2019 18:50 20,9 C 20,1 C 62 % 1011,6 hPa 0,0 l/m 10,9 km/h (2 Bft) SW 225 13,3 C 19,4 C 17,9 km/h (3 Bft)
18.06.2019 18:48 20,9 C 20,1 C 62 % 1011,6 hPa 0,0 l/m 10,1 km/h (2 Bft) SW 225 13,3 C 19,6 C 17,4 km/h (3 Bft)
18.06.2019 18:46 20,9 C 20,1 C 62 % 1011,6 hPa 0,0 l/m 9,7 km/h (2 Bft) S 180 13,3 C 19,7 C 25,8 km/h (4 Bft)
18.06.2019 18:44 21,0 C 20,2 C 61 % 1011,6 hPa 0,0 l/m 9,4 km/h (2 Bft) SW 225 13,2 C 19,9 C 25,8 km/h (4 Bft)
18.06.2019 18:42 21,0 C 20,3 C 61 % 1011,6 hPa 0,0 l/m 9,9 km/h (2 Bft) S-SO 157 13,2 C 19,8 C 12,3 km/h (3 Bft)
18.06.2019 18:40 21,0 C 20,3 C 61 % 1011,6 hPa 0,0 l/m 11,1 km/h (2 Bft) S-SO 157 13,2 C 19,4 C 11,8 km/h (2 Bft)
18.06.2019 18:38 21,1 C 20,2 C 61 % 1011,6 hPa 0,0 l/m 10,9 km/h (2 Bft) S 180 13,3 C 19,6 C 8,0 km/h (2 Bft)
18.06.2019 18:36 21,1 C 20,1 C 61 % 1011,6 hPa 0,0 l/m 11,1 km/h (2 Bft) S-SW 202 13,3 C 19,5 C 13,3 km/h (3 Bft)
18.06.2019 18:34 21,1 C 20,2 C 60 % 1011,6 hPa 0,0 l/m 10,6 km/h (2 Bft) S-SW 202 13,0 C 19,7 C 18,6 km/h (3 Bft)
18.06.2019 18:32 21,2 C 20,2 C 60 % 1011,6 hPa 0,0 l/m 9,4 km/h (2 Bft) S 180 13,1 C 20,1 C 18,6 km/h (3 Bft)
18.06.2019 18:30 21,2 C 20,1 C 60 % 1011,6 hPa 0,0 l/m 7,2 km/h (2 Bft) S 180 13,1 C 20,9 C 18,3 km/h (3 Bft)
18.06.2019 18:28 21,3 C 20,0 C 60 % 1011,6 hPa 0,0 l/m 5,8 km/h (2 Bft) S-SW 202 13,2 C 21,3 C 18,6 km/h (3 Bft)
18.06.2019 18:26 21,3 C 19,8 C 60 % 1011,6 hPa 0,0 l/m 5,1 km/h (1 Bft) S 180 13,2 C 21,3 C 18,6 km/h (3 Bft)
18.06.2019 18:24 21,3 C 19,7 C 60 % 1011,6 hPa 0,0 l/m 4,3 km/h (1 Bft) S 180 13,2 C 21,3 C 8,4 km/h (2 Bft)
18.06.2019 18:22 21,4 C 19,8 C 60 % 1011,6 hPa 0,0 l/m 4,8 km/h (1 Bft) S 180 13,3 C 21,4 C 16,2 km/h (3 Bft)
18.06.2019 18:20 21,4 C 19,9 C 60 % 1011,6 hPa 0,0 l/m 4,6 km/h (1 Bft) S 180 13,3 C 21,4 C 16,2 km/h (3 Bft)
18.06.2019 18:18 21,5 C 19,9 C 60 % 1011,6 hPa 0,0 l/m 5,8 km/h (2 Bft) S-SO 157 13,4 C 21,5 C 10,9 km/h (2 Bft)
18.06.2019 18:16 21,5 C 19,9 C 60 % 1011,6 hPa 0,0 l/m 5,6 km/h (1 Bft) S 180 13,4 C 21,5 C 10,9 km/h (2 Bft)
18.06.2019 18:14 21,6 C 19,9 C 61 % 1011,6 hPa 0,0 l/m 4,8 km/h (1 Bft) S-SO 157 13,7 C 21,6 C 9,2 km/h (2 Bft)
18.06.2019 18:12 21,6 C 20,0 C 61 % 1011,6 hPa 0,0 l/m 5,3 km/h (1 Bft) SW 225 13,7 C 21,6 C 9,2 km/h (2 Bft)
18.06.2019 18:10 21,7 C 20,2 C 61 % 1011,6 hPa 0,0 l/m 4,3 km/h (1 Bft) SW 225 13,8 C 21,7 C 11,1 km/h (2 Bft)
18.06.2019 18:08 21,8 C 20,1 C 61 % 1011,6 hPa 0,0 l/m 3,1 km/h (1 Bft) SO 135 13,9 C 21,8 C 11,1 km/h (2 Bft)
18.06.2019 18:06 21,9 C 20,3 C 61 % 1011,6 hPa 0,0 l/m 2,7 km/h (1 Bft) S 180 14,0 C 21,9 C 5,1 km/h (1 Bft)
18.06.2019 18:04 21,9 C 20,2 C 61 % 1011,6 hPa 0,0 l/m 2,7 km/h (1 Bft) NW 315 14,0 C 21,9 C 7,0 km/h (2 Bft)
18.06.2019 18:02 22,0 C 20,3 C 61 % 1011,6 hPa 0,0 l/m 2,7 km/h (1 Bft) W-SW 247 14,1 C 22,0 C 7,0 km/h (2 Bft)
18.06.2019 18:00 22,0 C 20,5 C 61 % 1011,6 hPa 0,0 l/m 3,4 km/h (1 Bft) SO 135 14,1 C 22,0 C 0,0 km/h (0 Bft)
18.06.2019 17:58 22,0 C 20,6 C 61 % 1011,6 hPa 0,0 l/m 4,1 km/h (1 Bft) SO 135 14,1 C 22,0 C 3,9 km/h (1 Bft)
18.06.2019 17:56 22,0 C 20,7 C 61 % 1011,6 hPa 0,0 l/m 5,3 km/h (1 Bft) S 180 14,1 C 22,0 C 3,9 km/h (1 Bft)
18.06.2019 17:54 22,0 C 20,8 C 61 % 1011,8 hPa 0,0 l/m 5,6 km/h (1 Bft) O 90 14,1 C 22,0 C 9,2 km/h (2 Bft)
18.06.2019 17:52 22,0 C 20,8 C 61 % 1011,8 hPa 0,0 l/m 5,8 km/h (2 Bft) W-SW 247 14,1 C 22,0 C 9,2 km/h (2 Bft)
18.06.2019 17:50 22,1 C 20,9 C 61 % 1011,8 hPa 0,0 l/m 7,0 km/h (2 Bft) O-NO 67 14,2 C 21,9 C 8,9 km/h (2 Bft)
18.06.2019 17:48 22,1 C 20,8 C 61 % 1011,8 hPa 0,0 l/m 8,0 km/h (2 Bft) N-NO 22 14,2 C 21,6 C 9,7 km/h (2 Bft)
18.06.2019 17:46 22,2 C 20,7 C 62 % 1011,8 hPa 0,0 l/m 8,0 km/h (2 Bft) S 180 14,6 C 21,7 C 26,6 km/h (4 Bft)
18.06.2019 17:44 22,2 C 20,8 C 62 % 1011,8 hPa 0,0 l/m 7,7 km/h (2 Bft) W-SW 247 14,6 C 21,8 C 10,1 km/h (2 Bft)
18.06.2019 17:42 22,2 C 20,8 C 62 % 1011,8 hPa 0,0 l/m 7,5 km/h (2 Bft) S-SO 157 14,6 C 21,8 C 26,6 km/h (4 Bft)
18.06.2019 17:40 22,4 C 20,8 C 62 % 1011,8 hPa 0,0 l/m 6,3 km/h (2 Bft) S 180 14,8 C 22,4 C 26,6 km/h (4 Bft)
18.06.2019 17:38 22,6 C 21,3 C 62 % 1011,8 hPa 0,0 l/m 4,1 km/h (1 Bft) W-SW 247 14,9 C 22,6 C 11,1 km/h (2 Bft)
18.06.2019 17:36 22,7 C 21,4 C 62 % 1011,8 hPa 0,0 l/m 2,7 km/h (1 Bft) SO 135 15,0 C 22,7 C 6,3 km/h (2 Bft)
18.06.2019 17:34 22,7 C 21,4 C 62 % 1011,8 hPa 0,0 l/m 1,9 km/h (1 Bft) S-SW 202 15,0 C 22,7 C 6,3 km/h (2 Bft)
18.06.2019 17:32 22,7 C 21,3 C 62 % 1011,8 hPa 0,0 l/m 1,4 km/h (1 Bft) N-NO 22 15,0 C 22,7 C 5,3 km/h (1 Bft)
18.06.2019 17:30 22,8 C 21,5 C 62 % 1011,8 hPa 0,0 l/m 1,2 km/h (1 Bft) S-SW 202 15,1 C 22,8 C 5,3 km/h (1 Bft)
18.06.2019 17:28 22,8 C 21,7 C 62 % 1011,8 hPa 0,0 l/m 1,0 km/h (0 Bft) S-SO 157 15,1 C 22,8 C 0,0 km/h (0 Bft)
18.06.2019 17:26 22,8 C 21,7 C 62 % 1011,8 hPa 0,0 l/m 1,0 km/h (0 Bft) S-SW 202 15,1 C 22,8 C 4,3 km/h (1 Bft)
18.06.2019 17:24 22,8 C 21,7 C 62 % 1011,8 hPa 0,0 l/m 1,4 km/h (1 Bft) W 270 15,1 C 22,8 C 4,3 km/h (1 Bft)
18.06.2019 17:22 22,8 C 21,5 C 62 % 1011,8 hPa 0,0 l/m 1,9 km/h (1 Bft) NO 45 15,1 C 22,8 C 3,9 km/h (1 Bft)
18.06.2019 17:20 22,7 C 21,5 C 62 % 1011,8 hPa 0,0 l/m 1,9 km/h (1 Bft) N-NO 22 15,0 C 22,7 C 3,9 km/h (1 Bft)
18.06.2019 17:18 22,8 C 21,5 C 62 % 1011,8 hPa 0,0 l/m 1,7 km/h (1 Bft) S-SW 202 15,1 C 22,8 C 3,6 km/h (1 Bft)
18.06.2019 17:16 22,8 C 21,6 C 62 % 1011,8 hPa 0,0 l/m 1,4 km/h (1 Bft) N-NW 337 15,1 C 22,8 C 8,4 km/h (2 Bft)
18.06.2019 17:14 22,9 C 21,9 C 62 % 1011,8 hPa 0,0 l/m 1,7 km/h (1 Bft) W-NW 292 15,2 C 22,9 C 8,4 km/h (2 Bft)
18.06.2019 17:12 23,0 C 22,0 C 61 % 1011,8 hPa 0,0 l/m 0,5 km/h (0 Bft) W-NW 292 15,1 C 23,0 C 2,4 km/h (1 Bft)
18.06.2019 17:10 23,0 C 22,1 C 61 % 1011,8 hPa 0,0 l/m 1,0 km/h (0 Bft) N-NO 22 15,1 C 23,0 C 0,0 km/h (0 Bft)
18.06.2019 17:08 23,0 C 22,0 C 61 % 1011,8 hPa 0,0 l/m 2,2 km/h (1 Bft) S-SW 202 15,1 C 23,0 C 0,0 km/h (0 Bft)
18.06.2019 17:06 22,9 C 22,0 C 62 % 1011,8 hPa 0,0 l/m 2,4 km/h (1 Bft) W-SW 247 15,2 C 22,9 C 0,0 km/h (0 Bft)
18.06.2019 17:04 23,0 C 22,2 C 61 % 1011,8 hPa 0,0 l/m 2,9 km/h (1 Bft) W 270 15,1 C 23,0 C 2,9 km/h (1 Bft)
18.06.2019 17:02 22,9 C 22,2 C 62 % 1011,8 hPa 0,0 l/m 3,9 km/h (1 Bft) O-SO 112 15,2 C 22,9 C 5,1 km/h (1 Bft)
18.06.2019 17:00 23,0 C 22,2 C 61 % 1011,8 hPa 0,0 l/m 3,9 km/h (1 Bft) O-NO 67 15,1 C 23,0 C 5,3 km/h (1 Bft)
18.06.2019 16:58 23,1 C 22,2 C 61 % 1011,8 hPa 0,0 l/m 2,9 km/h (1 Bft) O 90 15,2 C 23,1 C 5,3 km/h (1 Bft)
18.06.2019 16:56 23,2 C 22,4 C 61 % 1011,8 hPa 0,0 l/m 2,7 km/h (1 Bft) NO 45 15,3 C 23,2 C 4,6 km/h (1 Bft)
18.06.2019 16:54 23,2 C 22,7 C 61 % 1011,6 hPa 0,0 l/m 2,4 km/h (1 Bft) SO 135 15,3 C 23,2 C 4,6 km/h (1 Bft)
18.06.2019 16:52 23,4 C 23,0 C 61 % 1011,6 hPa 0,0 l/m 1,4 km/h (1 Bft) SO 135 15,4 C 23,4 C 4,6 km/h (1 Bft)
18.06.2019 16:50 23,4 C 23,6 C 61 % 1011,6 hPa 0,0 l/m 1,4 km/h (1 Bft) O-SO 112 15,4 C 23,4 C 2,7 km/h (1 Bft)
18.06.2019 16:48 23,4 C 23,9 C 61 % 1011,6 hPa 0,0 l/m 1,4 km/h (1 Bft) O 90 15,4 C 23,4 C 4,6 km/h (1 Bft)
18.06.2019 16:46 23,3 C 24,2 C 61 % 1011,6 hPa 0,0 l/m 1,7 km/h (1 Bft) SO 135 15,3 C 23,3 C 6,0 km/h (2 Bft)
18.06.2019 16:44 23,2 C 24,0 C 61 % 1011,6 hPa 0,0 l/m 1,4 km/h (1 Bft) W-SW 247 15,3 C 23,2 C 6,0 km/h (2 Bft)
18.06.2019 16:42 23,1 C 23,8 C 61 % 1011,6 hPa 0,0 l/m 1,7 km/h (1 Bft) O 90 15,2 C 23,1 C 2,4 km/h (1 Bft)
18.06.2019 16:40 23,1 C 23,7 C 62 % 1011,6 hPa 0,0 l/m 1,9 km/h (1 Bft) O-SO 112 15,4 C 23,1 C 2,9 km/h (1 Bft)
18.06.2019 16:38 23,0 C 23,4 C 62 % 1011,6 hPa 0,0 l/m 1,9 km/h (1 Bft) SO 135 15,3 C 23,0 C 3,4 km/h (1 Bft)
18.06.2019 16:36 22,9 C 23,3 C 62 % 1011,6 hPa 0,0 l/m 1,7 km/h (1 Bft) N 360 15,2 C 22,9 C 3,4 km/h (1 Bft)
18.06.2019 16:34 22,9 C 23,2 C 62 % 1011,9 hPa 0,0 l/m 2,2 km/h (1 Bft) S-SO 157 15,2 C 22,9 C 2,4 km/h (1 Bft)
18.06.2019 16:32 22,8 C 22,5 C 62 % 1011,9 hPa 0,0 l/m 1,9 km/h (1 Bft) SO 135 15,1 C 22,8 C 5,1 km/h (1 Bft)
18.06.2019 16:30 22,8 C 22,3 C 62 % 1011,9 hPa 0,0 l/m 1,7 km/h (1 Bft) N-NO 22 15,1 C 22,8 C 5,1 km/h (1 Bft)
18.06.2019 16:28 22,8 C 22,2 C 62 % 1011,9 hPa 0,0 l/m 1,4 km/h (1 Bft) O-SO 112 15,1 C 22,8 C 6,0 km/h (2 Bft)
18.06.2019 16:26 22,8 C 22,1 C 62 % 1011,9 hPa 0,0 l/m 2,2 km/h (1 Bft) SO 135 15,1 C 22,8 C 6,0 km/h (2 Bft)
18.06.2019 16:24 22,8 C 22,1 C 62 % 1011,9 hPa 0,0 l/m 2,7 km/h (1 Bft) S 180 15,1 C 22,8 C 4,8 km/h (1 Bft)
18.06.2019 16:22 22,8 C 22,1 C 62 % 1011,9 hPa 0,0 l/m 2,7 km/h (1 Bft) NO 45 15,1 C 22,8 C 4,3 km/h (1 Bft)
18.06.2019 16:20 22,8 C 22,2 C 62 % 1011,9 hPa 0,0 l/m 3,4 km/h (1 Bft) O-SO 112 15,1 C 22,8 C 2,9 km/h (1 Bft)
18.06.2019 16:18 22,8 C 22,3 C 62 % 1011,9 hPa 0,0 l/m 3,9 km/h (1 Bft) N-NW 337 15,1 C 22,8 C 8,0 km/h (2 Bft)
18.06.2019 16:16 22,8 C 22,4 C 62 % 1011,9 hPa 0,0 l/m 4,1 km/h (1 Bft) S-SO 157 15,1 C 22,8 C 8,0 km/h (2 Bft)
18.06.2019 16:14 22,9 C 22,7 C 62 % 1012,1 hPa 0,0 l/m 3,1 km/h (1 Bft) NW 315 15,2 C 22,9 C 3,9 km/h (1 Bft)
18.06.2019 16:12 22,9 C 22,7 C 62 % 1012,1 hPa 0,0 l/m 2,7 km/h (1 Bft) SO 135 15,2 C 22,9 C 4,6 km/h (1 Bft)
18.06.2019 16:10 22,8 C 22,5 C 62 % 1012,1 hPa 0,0 l/m 2,4 km/h (1 Bft) O 90 15,1 C 22,8 C 4,6 km/h (1 Bft)
18.06.2019 16:08 22,9 C 22,4 C 62 % 1012,1 hPa 0,0 l/m 2,2 km/h (1 Bft) SO 135 15,2 C 22,9 C 7,5 km/h (2 Bft)
18.06.2019 16:06 22,9 C 22,4 C 62 % 1012,1 hPa 0,0 l/m 2,4 km/h (1 Bft) O-SO 112 15,2 C 22,9 C 7,5 km/h (2 Bft)
18.06.2019 16:04 22,9 C 22,4 C 62 % 1012,1 hPa 0,0 l/m 1,9 km/h (1 Bft) O-SO 112 15,2 C 22,9 C 2,7 km/h (1 Bft)
18.06.2019 16:02 22,9 C 22,2 C 62 % 1012,1 hPa 0,0 l/m 2,2 km/h (1 Bft) NO 45 15,2 C 22,9 C 4,1 km/h (1 Bft)
18.06.2019 16:00 22,9 C 22,0 C 62 % 1012,1 hPa 0,0 l/m 2,4 km/h (1 Bft) W-SW 247 15,2 C 22,9 C 4,1 km/h (1 Bft)
18.06.2019 15:58 23,0 C 22,1 C 62 % 1012,1 hPa 0,0 l/m 2,4 km/h (1 Bft) NW 315 15,3 C 23,0 C 5,3 km/h (1 Bft)
18.06.2019 15:56 22,9 C 22,0 C 62 % 1012,1 hPa 0,0 l/m 2,7 km/h (1 Bft) W 270 15,2 C 22,9 C 5,3 km/h (1 Bft)
18.06.2019 15:54 22,9 C 22,0 C 62 % 1012,1 hPa 0,0 l/m 2,7 km/h (1 Bft) S 180 15,2 C 22,9 C 3,4 km/h (1 Bft)
18.06.2019 15:52 23,0 C 22,0 C 61 % 1012,1 hPa 0,0 l/m 2,4 km/h (1 Bft) S-SW 202 15,1 C 23,0 C 3,4 km/h (1 Bft)
18.06.2019 15:50 23,0 C 22,0 C 61 % 1012,1 hPa 0,0 l/m 2,7 km/h (1 Bft) O 90 15,1 C 23,0 C 5,6 km/h (1 Bft)
18.06.2019 15:48 23,1 C 22,0 C 61 % 1012,1 hPa 0,0 l/m 2,7 km/h (1 Bft) N-NO 22 15,2 C 23,1 C 10,1 km/h (2 Bft)
18.06.2019 15:46 23,1 C 22,0 C 61 % 1012,1 hPa 0,0 l/m 2,4 km/h (1 Bft) S-SW 202 15,2 C 23,1 C 10,1 km/h (2 Bft)
18.06.2019 15:44 23,2 C 22,2 C 61 % 1012,1 hPa 0,0 l/m 2,7 km/h (1 Bft) O-SO 112 15,3 C 23,2 C 4,6 km/h (1 Bft)
18.06.2019 15:42 23,3 C 22,3 C 61 % 1012,1 hPa 0,0 l/m 3,1 km/h (1 Bft) O-SO 112 15,3 C 23,3 C 4,6 km/h (1 Bft)
18.06.2019 15:40 23,3 C 22,1 C 61 % 1012,1 hPa 0,0 l/m 3,1 km/h (1 Bft) S-SO 157 15,3 C 23,3 C 3,1 km/h (1 Bft)
18.06.2019 15:38 23,3 C 22,2 C 61 % 1012,1 hPa 0,0 l/m 3,4 km/h (1 Bft) O-SO 112 15,3 C 23,3 C 4,6 km/h (1 Bft)
18.06.2019 15:36 23,4 C 22,4 C 61 % 1012,1 hPa 0,0 l/m 3,6 km/h (1 Bft) O-NO 67 15,4 C 23,4 C 6,3 km/h (2 Bft)
18.06.2019 15:34 23,5 C 22,5 C 61 % 1012,2 hPa 0,0 l/m 3,1 km/h (1 Bft) SW 225 15,5 C 23,5 C 6,8 km/h (2 Bft)
18.06.2019 15:32 23,6 C 22,6 C 61 % 1012,2 hPa 0,0 l/m 2,9 km/h (1 Bft) SO 135 15,6 C 23,6 C 6,8 km/h (2 Bft)
18.06.2019 15:30 23,7 C 22,7 C 60 % 1012,2 hPa 0,0 l/m 2,4 km/h (1 Bft) O 90 15,5 C 23,7 C 9,4 km/h (2 Bft)
18.06.2019 15:28 23,9 C 22,5 C 60 % 1012,2 hPa 0,0 l/m 3,4 km/h (1 Bft) S 180 15,7 C 23,9 C 9,4 km/h (2 Bft)
18.06.2019 15:26 24,0 C 22,5 C 60 % 1012,2 hPa 0,0 l/m 3,6 km/h (1 Bft) N-NW 337 15,7 C 24,0 C 7,2 km/h (2 Bft)
18.06.2019 15:24 24,1 C 22,7 C 60 % 1012,2 hPa 0,0 l/m 3,6 km/h (1 Bft) W-SW 247 15,8 C 24,1 C 5,6 km/h (1 Bft)
18.06.2019 15:22 24,1 C 22,8 C 60 % 1012,2 hPa 0,0 l/m 3,9 km/h (1 Bft) O-SO 112 15,8 C 24,1 C 6,0 km/h (2 Bft)
18.06.2019 15:20 24,4 C 23,2 C 60 % 1012,2 hPa 0,0 l/m 4,8 km/h (1 Bft) O 90 16,1 C 24,4 C 6,0 km/h (2 Bft)
18.06.2019 15:18 24,7 C 23,6 C 60 % 1012,2 hPa 0,0 l/m 4,8 km/h (1 Bft) O-SO 112 16,4 C 24,7 C 5,6 km/h (1 Bft)
18.06.2019 15:16 24,8 C 24,3 C 60 % 1012,2 hPa 0,0 l/m 5,3 km/h (1 Bft) SW 225 16,5 C 24,8 C 7,0 km/h (2 Bft)
18.06.2019 15:14 25,0 C 26,1 C 60 % 1012,2 hPa 0,0 l/m 5,1 km/h (1 Bft) NW 315 16,7 C 25,0 C 7,0 km/h (2 Bft)
18.06.2019 15:12 24,8 C 27,0 C 60 % 1012,2 hPa 0,0 l/m 6,3 km/h (2 Bft) N-NO 22 16,5 C 24,8 C 13,5 km/h (3 Bft)
18.06.2019 15:10 24,8 C 26,9 C 60 % 1012,2 hPa 0,0 l/m 7,0 km/h (2 Bft) N-NW 337 16,5 C 24,6 C 13,5 km/h (3 Bft)
18.06.2019 15:08 24,9 C 27,2 C 61 % 1012,2 hPa 0,0 l/m 6,8 km/h (2 Bft) O-SO 112 16,8 C 24,8 C 15,7 km/h (3 Bft)
18.06.2019 15:06 24,7 C 26,7 C 60 % 1012,2 hPa 0,0 l/m 6,5 km/h (2 Bft) W 270 16,4 C 24,7 C 15,7 km/h (3 Bft)
18.06.2019 15:04 24,5 C 26,4 C 60 % 1012,2 hPa 0,0 l/m 7,0 km/h (2 Bft) S-SO 157 16,2 C 24,3 C 10,9 km/h (2 Bft)
18.06.2019 15:02 24,7 C 26,6 C 61 % 1012,2 hPa 0,0 l/m 6,5 km/h (2 Bft) O-NO 67 16,7 C 24,7 C 10,9 km/h (2 Bft)
18.06.2019 15:00 24,8 C 26,8 C 61 % 1012,2 hPa 0,0 l/m 5,6 km/h (1 Bft) NW 315 16,8 C 24,8 C 8,7 km/h (2 Bft)
18.06.2019 14:58 24,7 C 27,1 C 61 % 1012,2 hPa 0,0 l/m 5,1 km/h (1 Bft) NW 315 16,7 C 24,7 C 8,7 km/h (2 Bft)
18.06.2019 14:56 24,4 C 26,2 C 61 % 1012,2 hPa 0,0 l/m 4,8 km/h (1 Bft) N-NO 22 16,4 C 24,4 C 8,9 km/h (2 Bft)
18.06.2019 14:54 24,3 C 26,4 C 60 % 1012,2 hPa 0,0 l/m 5,3 km/h (1 Bft) SW 225 16,0 C 24,3 C 11,1 km/h (2 Bft)
18.06.2019 14:52 24,4 C 26,8 C 61 % 1012,2 hPa 0,0 l/m 5,1 km/h (1 Bft) SO 135 16,4 C 24,4 C 11,1 km/h (2 Bft)
18.06.2019 14:50 24,3 C 26,3 C 61 % 1012,2 hPa 0,0 l/m 5,3 km/h (1 Bft) SO 135 16,3 C 24,3 C 7,2 km/h (2 Bft)
18.06.2019 14:48 24,2 C 26,4 C 61 % 1012,2 hPa 0,0 l/m 5,8 km/h (2 Bft) SW 225 16,2 C 24,2 C 7,2 km/h (2 Bft)
18.06.2019 14:46 24,1 C 26,3 C 61 % 1012,2 hPa 0,0 l/m 6,0 km/h (2 Bft) N-NO 22 16,1 C 24,1 C 6,0 km/h (2 Bft)
18.06.2019 14:44 24,3 C 26,2 C 61 % 1012,2 hPa 0,0 l/m 6,5 km/h (2 Bft) N 360 16,3 C 24,3 C 6,8 km/h (2 Bft)
18.06.2019 14:42 24,2 C 26,5 C 61 % 1012,2 hPa 0,0 l/m 6,5 km/h (2 Bft) SO 135 16,2 C 24,2 C 7,5 km/h (2 Bft)
18.06.2019 14:40 24,0 C 25,7 C 61 % 1012,2 hPa 0,0 l/m 7,2 km/h (2 Bft) S-SO 157 16,0 C 23,8 C 7,5 km/h (2 Bft)
18.06.2019 14:38 23,9 C 25,8 C 61 % 1012,2 hPa 0,0 l/m 7,7 km/h (2 Bft) SO 135 15,9 C 23,5 C 7,2 km/h (2 Bft)
18.06.2019 14:36 24,0 C 25,7 C 61 % 1012,2 hPa 0,0 l/m 7,2 km/h (2 Bft) SO 135 16,0 C 23,8 C 13,3 km/h (3 Bft)
18.06.2019 14:34 24,1 C 25,4 C 61 % 1012,4 hPa 0,0 l/m 7,2 km/h (2 Bft) O-NO 67 16,1 C 23,9 C 13,3 km/h (3 Bft)
18.06.2019 14:32 24,0 C 25,7 C 61 % 1012,4 hPa 0,0 l/m 7,2 km/h (2 Bft) O-SO 112 16,0 C 23,8 C 12,3 km/h (3 Bft)
18.06.2019 14:30 24,1 C 25,8 C 61 % 1012,4 hPa 0,0 l/m 6,8 km/h (2 Bft) O 90 16,1 C 24,0 C 12,3 km/h (3 Bft)
18.06.2019 14:28 24,2 C 26,1 C 62 % 1012,4 hPa 0,0 l/m 6,8 km/h (2 Bft) SO 135 16,4 C 24,1 C 12,3 km/h (3 Bft)
18.06.2019 14:26 24,1 C 26,2 C 62 % 1012,4 hPa 0,0 l/m 6,3 km/h (2 Bft) S 180 16,4 C 24,1 C 10,4 km/h (2 Bft)
18.06.2019 14:24 24,0 C 26,2 C 62 % 1012,4 hPa 0,0 l/m 6,5 km/h (2 Bft) O-SO 112 16,3 C 24,0 C 10,4 km/h (2 Bft)
18.06.2019 14:22 24,1 C 26,1 C 62 % 1012,4 hPa 0,0 l/m 6,8 km/h (2 Bft) N-NW 337 16,4 C 24,0 C 12,1 km/h (2 Bft)
18.06.2019 14:20 23,9 C 25,7 C 62 % 1012,4 hPa 0,0 l/m 7,0 km/h (2 Bft) NO 45 16,2 C 23,7 C 12,1 km/h (2 Bft)
18.06.2019 14:18 24,0 C 26,1 C 62 % 1012,4 hPa 0,0 l/m 6,5 km/h (2 Bft) O 90 16,3 C 24,0 C 11,3 km/h (2 Bft)
18.06.2019 14:16 24,0 C 26,2 C 62 % 1012,4 hPa 0,0 l/m 7,2 km/h (2 Bft) NO 45 16,3 C 23,8 C 7,7 km/h (2 Bft)
18.06.2019 14:14 23,6 C 25,3 C 62 % 1012,1 hPa 0,0 l/m 7,2 km/h (2 Bft) SO 135 15,9 C 23,4 C 12,6 km/h (3 Bft)
18.06.2019 14:12 23,6 C 25,4 C 62 % 1012,1 hPa 0,0 l/m 7,2 km/h (2 Bft) O-NO 67 15,9 C 23,4 C 12,6 km/h (3 Bft)
18.06.2019 14:10 23,8 C 25,7 C 62 % 1012,1 hPa 0,0 l/m 7,7 km/h (2 Bft) S-SO 157 16,1 C 23,4 C 9,2 km/h (2 Bft)
18.06.2019 14:08 23,5 C 25,3 C 62 % 1012,1 hPa 0,0 l/m 8,2 km/h (2 Bft) SO 135 15,8 C 23,0 C 12,6 km/h (3 Bft)
18.06.2019 14:06 23,7 C 25,6 C 62 % 1012,1 hPa 0,0 l/m 8,2 km/h (2 Bft) SO 135 16,0 C 23,2 C 12,6 km/h (3 Bft)
18.06.2019 14:04 23,7 C 25,5 C 63 % 1012,1 hPa 0,0 l/m 8,0 km/h (2 Bft) N-NO 22 16,2 C 23,2 C 8,4 km/h (2 Bft)
18.06.2019 14:02 23,7 C 25,2 C 62 % 1012,1 hPa 0,0 l/m 8,4 km/h (2 Bft) S-SO 157 16,0 C 23,1 C 15,7 km/h (3 Bft)
18.06.2019 14:00 23,6 C 24,9 C 62 % 1012,1 hPa 0,0 l/m 8,0 km/h (2 Bft) O-SO 112 15,9 C 23,1 C 15,7 km/h (3 Bft)
18.06.2019 13:58 23,7 C 25,5 C 63 % 1012,1 hPa 0,0 l/m 7,2 km/h (2 Bft) S-SO 157 16,2 C 23,5 C 7,5 km/h (2 Bft)
18.06.2019 13:56 23,8 C 25,3 C 63 % 1012,1 hPa 0,0 l/m 6,8 km/h (2 Bft) W 270 16,3 C 23,7 C 9,2 km/h (2 Bft)
18.06.2019 13:54 23,7 C 25,2 C 63 % 1012,2 hPa 0,0 l/m 5,8 km/h (2 Bft) N 360 16,2 C 23,7 C 16,7 km/h (3 Bft)
18.06.2019 13:52 23,8 C 25,7 C 63 % 1012,2 hPa 0,0 l/m 5,1 km/h (1 Bft) O-NO 67 16,3 C 23,8 C 16,7 km/h (3 Bft)
18.06.2019 13:50 24,0 C 26,4 C 63 % 1012,2 hPa 0,0 l/m 4,8 km/h (1 Bft) S-SW 202 16,5 C 24,0 C 11,8 km/h (2 Bft)
18.06.2019 13:48 24,1 C 26,2 C 63 % 1012,2 hPa 0,0 l/m 5,6 km/h (1 Bft) SO 135 16,6 C 24,1 C 11,8 km/h (2 Bft)
18.06.2019 13:46 24,0 C 26,8 C 63 % 1012,2 hPa 0,0 l/m 5,1 km/h (1 Bft) SO 135 16,5 C 24,0 C 4,1 km/h (1 Bft)
18.06.2019 13:44 23,8 C 25,8 C 63 % 1012,2 hPa 0,0 l/m 5,6 km/h (1 Bft) SO 135 16,3 C 23,8 C 4,1 km/h (1 Bft)
18.06.2019 13:42 23,4 C 25,5 C 63 % 1012,2 hPa 0,0 l/m 6,0 km/h (2 Bft) SO 135 15,9 C 23,4 C 9,2 km/h (2 Bft)
18.06.2019 13:40 23,5 C 25,2 C 63 % 1012,2 hPa 0,0 l/m 6,3 km/h (2 Bft) S 180 16,0 C 23,5 C 11,3 km/h (2 Bft)
18.06.2019 13:38 23,6 C 25,7 C 63 % 1012,2 hPa 0,0 l/m 5,6 km/h (1 Bft) O-NO 67 16,1 C 23,6 C 11,8 km/h (2 Bft)
18.06.2019 13:36 23,7 C 25,8 C 64 % 1012,2 hPa 0,0 l/m 5,3 km/h (1 Bft) SO 135 16,5 C 23,7 C 11,8 km/h (2 Bft)
18.06.2019 13:34 23,6 C 25,9 C 64 % 1012,2 hPa 0,0 l/m 5,3 km/h (1 Bft) O-SO 112 16,4 C 23,6 C 10,4 km/h (2 Bft)
18.06.2019 13:32 23,5 C 25,6 C 64 % 1012,2 hPa 0,0 l/m 4,3 km/h (1 Bft) NO 45 16,3 C 23,5 C 8,4 km/h (2 Bft)
18.06.2019 13:30 23,6 C 25,7 C 64 % 1012,2 hPa 0,0 l/m 4,8 km/h (1 Bft) N-NW 337 16,4 C 23,6 C 8,9 km/h (2 Bft)
18.06.2019 13:28 23,3 C 24,9 C 63 % 1012,2 hPa 0,0 l/m 4,8 km/h (1 Bft) SO 135 15,9 C 23,3 C 9,2 km/h (2 Bft)
18.06.2019 13:26 23,4 C 25,7 C 64 % 1012,2 hPa 0,0 l/m 4,6 km/h (1 Bft) S-SO 157 16,2 C 23,4 C 9,2 km/h (2 Bft)
18.06.2019 13:24 23,3 C 25,6 C 64 % 1012,2 hPa 0,0 l/m 4,3 km/h (1 Bft) N-NO 22 16,1 C 23,3 C 5,1 km/h (1 Bft)
18.06.2019 13:22 23,4 C 25,1 C 64 % 1012,2 hPa 0,0 l/m 4,6 km/h (1 Bft) O-NO 67 16,2 C 23,4 C 5,8 km/h (2 Bft)
18.06.2019 13:20 23,3 C 25,0 C 64 % 1012,2 hPa 0,0 l/m 4,8 km/h (1 Bft) NW 315 16,1 C 23,3 C 5,8 km/h (2 Bft)
18.06.2019 13:18 23,1 C 25,2 C 64 % 1012,2 hPa 0,0 l/m 4,3 km/h (1 Bft) SW 225 15,9 C 23,1 C 8,0 km/h (2 Bft)
18.06.2019 13:16 22,9 C 24,1 C 66 % 1012,2 hPa 0,0 l/m 5,1 km/h (1 Bft) W 270 16,2 C 22,9 C 8,0 km/h (2 Bft)
18.06.2019 13:14 22,8 C 22,9 C 66 % 1012,5 hPa 0,0 l/m 4,8 km/h (1 Bft) S-SW 202 16,1 C 22,8 C 11,8 km/h (2 Bft)
18.06.2019 13:12 22,8 C 22,7 C 66 % 1012,5 hPa 0,0 l/m 6,0 km/h (2 Bft) SO 135 16,1 C 22,8 C 11,8 km/h (2 Bft)
18.06.2019 13:10 22,9 C 23,4 C 66 % 1012,5 hPa 0,0 l/m 6,8 km/h (2 Bft) SO 135 16,2 C 22,8 C 6,0 km/h (2 Bft)
18.06.2019 13:08 23,0 C 24,4 C 64 % 1012,5 hPa 0,0 l/m 7,2 km/h (2 Bft) N-NO 22 15,8 C 22,7 C 7,7 km/h (2 Bft)
18.06.2019 13:06 22,9 C 24,2 C 66 % 1012,5 hPa 0,0 l/m 8,0 km/h (2 Bft) W-SW 247 16,2 C 22,4 C 7,7 km/h (2 Bft)
18.06.2019 13:04 22,6 C 23,9 C 66 % 1012,5 hPa 0,0 l/m 8,2 km/h (2 Bft) NW 315 15,9 C 22,0 C 11,1 km/h (2 Bft)
18.06.2019 13:02 22,6 C 24,2 C 66 % 1012,5 hPa 0,0 l/m 8,2 km/h (2 Bft) O-SO 112 15,9 C 22,0 C 11,1 km/h (2 Bft)
18.06.2019 13:00 22,7 C 24,7 C 66 % 1012,5 hPa 0,0 l/m 6,8 km/h (2 Bft) S 180 16,0 C 22,6 C 11,1 km/h (2 Bft)
18.06.2019 12:58 22,8 C 24,5 C 66 % 1012,5 hPa 0,0 l/m 6,5 km/h (2 Bft) NO 45 16,1 C 22,8 C 12,6 km/h (3 Bft)
18.06.2019 12:56 22,7 C 24,8 C 66 % 1012,5 hPa 0,0 l/m 6,3 km/h (2 Bft) O-SO 112 16,0 C 22,7 C 12,6 km/h (3 Bft)
18.06.2019 12:54 22,7 C 24,8 C 66 % 1012,5 hPa 0,0 l/m 5,8 km/h (2 Bft) O-SO 112 16,0 C 22,7 C 12,1 km/h (2 Bft)
18.06.2019 12:52 22,7 C 24,9 C 67 % 1012,5 hPa 0,0 l/m 5,6 km/h (1 Bft) SO 135 16,2 C 22,7 C 11,8 km/h (2 Bft)
18.06.2019 12:50 22,4 C 24,4 C 66 % 1012,5 hPa 0,0 l/m 6,5 km/h (2 Bft) S-SO 157 15,7 C 22,4 C 10,9 km/h (2 Bft)
18.06.2019 12:48 22,4 C 24,2 C 67 % 1012,5 hPa 0,0 l/m 6,5 km/h (2 Bft) SO 135 16,0 C 22,4 C 10,9 km/h (2 Bft)
18.06.2019 12:46 22,4 C 24,4 C 67 % 1012,5 hPa 0,0 l/m 6,3 km/h (2 Bft) O-SO 112 16,0 C 22,4 C 9,7 km/h (2 Bft)
18.06.2019 12:44 22,3 C 24,3 C 66 % 1012,5 hPa 0,0 l/m 6,0 km/h (2 Bft) S-SO 157 15,6 C 22,3 C 6,5 km/h (2 Bft)
18.06.2019 12:42 22,3 C 24,4 C 66 % 1012,5 hPa 0,0 l/m 6,0 km/h (2 Bft) NW 315 15,6 C 22,3 C 11,3 km/h (2 Bft)
18.06.2019 12:40 22,2 C 24,0 C 66 % 1012,5 hPa 0,0 l/m 6,0 km/h (2 Bft) SO 135 15,5 C 22,2 C 11,3 km/h (2 Bft)
18.06.2019 12:38 22,2 C 23,1 C 66 % 1012,5 hPa 0,0 l/m 5,3 km/h (1 Bft) O-SO 112 15,5 C 22,2 C 11,1 km/h (2 Bft)
18.06.2019 12:36 22,3 C 23,0 C 66 % 1012,5 hPa 0,0 l/m 4,8 km/h (1 Bft) SO 135 15,6 C 22,3 C 7,7 km/h (2 Bft)
18.06.2019 12:34 22,2 C 23,2 C 66 % 1012,5 hPa 0,0 l/m 5,1 km/h (1 Bft) SW 225 15,5 C 22,2 C 6,5 km/h (2 Bft)
18.06.2019 12:32 22,1 C 23,3 C 66 % 1012,5 hPa 0,0 l/m 4,6 km/h (1 Bft) O 90 15,4 C 22,1 C 17,4 km/h (3 Bft)
18.06.2019 12:30 22,1 C 23,5 C 66 % 1012,5 hPa 0,0 l/m 4,3 km/h (1 Bft) O 90 15,4 C 22,1 C 17,4 km/h (3 Bft)
18.06.2019 12:28 22,1 C 22,0 C 66 % 1012,5 hPa 0,0 l/m 3,9 km/h (1 Bft) W-NW 292 15,4 C 22,1 C 4,1 km/h (1 Bft)
18.06.2019 12:26 22,1 C 21,9 C 66 % 1012,5 hPa 0,0 l/m 4,1 km/h (1 Bft) O-SO 112 15,4 C 22,1 C 9,2 km/h (2 Bft)
18.06.2019 12:24 22,2 C 22,0 C 66 % 1012,5 hPa 0,0 l/m 4,1 km/h (1 Bft) S-SW 202 15,5 C 22,2 C 9,2 km/h (2 Bft)
18.06.2019 12:22 22,3 C 22,5 C 66 % 1012,5 hPa 0,0 l/m 4,3 km/h (1 Bft) SO 135 15,6 C 22,3 C 5,6 km/h (1 Bft)
18.06.2019 12:20 22,4 C 23,0 C 66 % 1012,5 hPa 0,0 l/m 4,1 km/h (1 Bft) S-SO 157 15,7 C 22,4 C 5,3 km/h (1 Bft)
18.06.2019 12:18 22,3 C 22,7 C 66 % 1012,5 hPa 0,0 l/m 4,8 km/h (1 Bft) SO 135 15,6 C 22,3 C 5,8 km/h (2 Bft)
18.06.2019 12:16 22,4 C 22,9 C 66 % 1012,5 hPa 0,0 l/m 4,3 km/h (1 Bft) SO 135 15,7 C 22,4 C 6,8 km/h (2 Bft)
18.06.2019 12:14 22,4 C 23,8 C 65 % 1012,8 hPa 0,0 l/m 4,3 km/h (1 Bft) N-NO 22 15,5 C 22,4 C 6,8 km/h (2 Bft)
18.06.2019 12:12 22,4 C 23,8 C 65 % 1012,8 hPa 0,0 l/m 4,3 km/h (1 Bft) S 180 15,5 C 22,4 C 6,5 km/h (2 Bft)
18.06.2019 12:10 22,5 C 23,6 C 64 % 1012,8 hPa 0,0 l/m 4,8 km/h (1 Bft) N-NO 22 15,3 C 22,5 C 7,0 km/h (2 Bft)
18.06.2019 12:08 22,5 C 23,6 C 64 % 1012,8 hPa 0,0 l/m 4,1 km/h (1 Bft) N-NO 22 15,3 C 22,5 C 7,0 km/h (2 Bft)
18.06.2019 12:06 22,5 C 23,6 C 64 % 1012,8 hPa 0,0 l/m 3,6 km/h (1 Bft) O 90 15,3 C 22,5 C 8,2 km/h (2 Bft)
18.06.2019 12:04 22,5 C 23,6 C 64 % 1012,8 hPa 0,0 l/m 3,9 km/h (1 Bft) NW 315 15,3 C 22,5 C 8,2 km/h (2 Bft)
18.06.2019 12:02 22,5 C 23,6 C 64 % 1012,8 hPa 0,0 l/m 3,9 km/h (1 Bft) NW 315 15,3 C 22,5 C 8,2 km/h (2 Bft)
18.06.2019 12:00 22,5 C 24,3 C 64 % 1012,8 hPa 0,0 l/m 3,6 km/h (1 Bft) NO 45 15,3 C 22,5 C 4,3 km/h (1 Bft)
18.06.2019 11:58 22,4 C 22,6 C 63 % 1012,8 hPa 0,0 l/m 3,4 km/h (1 Bft) NW 315 15,0 C 22,4 C 3,4 km/h (1 Bft)
18.06.2019 11:56 22,2 C 22,0 C 63 % 1012,8 hPa 0,0 l/m 3,6 km/h (1 Bft) W-SW 247 14,8 C 22,2 C 8,4 km/h (2 Bft)
18.06.2019 11:54 22,3 C 21,8 C 63 % 1012,7 hPa 0,0 l/m 4,1 km/h (1 Bft) NO 45 14,9 C 22,3 C 8,4 km/h (2 Bft)
18.06.2019 11:52 22,4 C 21,8 C 63 % 1012,7 hPa 0,0 l/m 3,9 km/h (1 Bft) W 270 15,0 C 22,4 C 14,2 km/h (3 Bft)
18.06.2019 11:50 22,5 C 21,9 C 63 % 1012,7 hPa 0,0 l/m 3,9 km/h (1 Bft) O 90 15,1 C 22,5 C 14,2 km/h (3 Bft)
18.06.2019 11:48 22,6 C 21,9 C 63 % 1012,7 hPa 0,0 l/m 4,3 km/h (1 Bft) W-SW 247 15,2 C 22,6 C 3,1 km/h (1 Bft)
18.06.2019 11:46 22,7 C 22,0 C 63 % 1012,7 hPa 0,0 l/m 4,8 km/h (1 Bft) NO 45 15,3 C 22,7 C 6,3 km/h (2 Bft)
18.06.2019 11:44 22,8 C 22,1 C 63 % 1012,7 hPa 0,0 l/m 5,3 km/h (1 Bft) O-NO 67 15,4 C 22,8 C 7,5 km/h (2 Bft)
18.06.2019 11:42 23,0 C 22,3 C 62 % 1012,7 hPa 0,0 l/m 5,3 km/h (1 Bft) NW 315 15,3 C 23,0 C 7,5 km/h (2 Bft)
18.06.2019 11:40 23,0 C 23,6 C 62 % 1012,7 hPa 0,0 l/m 5,6 km/h (1 Bft) S-SO 157 15,3 C 23,0 C 8,9 km/h (2 Bft)
18.06.2019 11:38 23,1 C 27,5 C 62 % 1012,7 hPa 0,0 l/m 5,8 km/h (2 Bft) N-NW 337 15,4 C 23,1 C 10,1 km/h (2 Bft)
18.06.2019 11:36 22,9 C 27,5 C 62 % 1012,7 hPa 0,0 l/m 5,8 km/h (2 Bft) S-SO 157 15,2 C 22,9 C 10,1 km/h (2 Bft)
18.06.2019 11:34 22,8 C 26,9 C 62 % 1012,8 hPa 0,0 l/m 5,1 km/h (1 Bft) O-SO 112 15,1 C 22,8 C 6,8 km/h (2 Bft)
18.06.2019 11:32 22,5 C 23,6 C 62 % 1012,8 hPa 0,0 l/m 5,3 km/h (1 Bft) SO 135 14,8 C 22,5 C 6,8 km/h (2 Bft)
18.06.2019 11:30 22,6 C 24,0 C 62 % 1012,8 hPa 0,0 l/m 5,8 km/h (2 Bft) S-SO 157 14,9 C 22,6 C 11,3 km/h (2 Bft)
18.06.2019 11:28 22,6 C 23,4 C 62 % 1012,8 hPa 0,0 l/m 5,6 km/h (1 Bft) O 90 14,9 C 22,6 C 11,3 km/h (2 Bft)
18.06.2019 11:26 22,8 C 22,8 C 62 % 1012,8 hPa 0,0 l/m 5,8 km/h (2 Bft) SO 135 15,1 C 22,8 C 8,7 km/h (2 Bft)
18.06.2019 11:24 22,8 C 23,3 C 62 % 1012,8 hPa 0,0 l/m 5,8 km/h (2 Bft) O-NO 67 15,1 C 22,8 C 8,9 km/h (2 Bft)
18.06.2019 11:22 22,9 C 26,3 C 62 % 1012,8 hPa 0,0 l/m 6,3 km/h (2 Bft) N-NW 337 15,2 C 22,9 C 8,9 km/h (2 Bft)
18.06.2019 11:20 22,8 C 27,2 C 62 % 1012,8 hPa 0,0 l/m 6,0 km/h (2 Bft) SO 135 15,1 C 22,8 C 7,7 km/h (2 Bft)
18.06.2019 11:18 22,7 C 25,3 C 62 % 1012,8 hPa 0,0 l/m 6,0 km/h (2 Bft) O-SO 112 15,0 C 22,7 C 8,0 km/h (2 Bft)
18.06.2019 11:16 22,6 C 22,8 C 62 % 1012,8 hPa 0,0 l/m 5,6 km/h (1 Bft) O 90 14,9 C 22,6 C 8,0 km/h (2 Bft)
18.06.2019 11:14 22,8 C 23,6 C 62 % 1012,8 hPa 0,0 l/m 5,3 km/h (1 Bft) O-SO 112 15,1 C 22,8 C 15,0 km/h (3 Bft)
18.06.2019 11:12 22,8 C 24,7 C 62 % 1012,8 hPa 0,0 l/m 6,3 km/h (2 Bft) S 180 15,1 C 22,8 C 15,0 km/h (3 Bft)
18.06.2019 11:10 22,8 C 25,0 C 62 % 1012,8 hPa 0,0 l/m 7,2 km/h (2 Bft) S-SO 157 15,1 C 22,5 C 10,4 km/h (2 Bft)
18.06.2019 11:08 22,9 C 25,4 C 62 % 1012,8 hPa 0,0 l/m 7,7 km/h (2 Bft) S-SO 157 15,2 C 22,5 C 10,4 km/h (2 Bft)
18.06.2019 11:06 22,9 C 27,4 C 62 % 1012,8 hPa 0,0 l/m 8,9 km/h (2 Bft) S-SO 157 15,2 C 22,1 C 22,2 km/h (4 Bft)
18.06.2019 11:04 22,6 C 26,4 C 61 % 1012,8 hPa 0,0 l/m 9,7 km/h (2 Bft) S-SO 157 14,7 C 21,6 C 8,0 km/h (2 Bft)
18.06.2019 11:02 22,6 C 25,6 C 61 % 1012,8 hPa 0,0 l/m 9,2 km/h (2 Bft) O-NO 67 14,7 C 21,7 C 8,2 km/h (2 Bft)
18.06.2019 11:00 22,7 C 26,4 C 61 % 1012,8 hPa 0,0 l/m 8,0 km/h (2 Bft) SO 135 14,8 C 22,2 C 10,1 km/h (2 Bft)
18.06.2019 10:58 22,9 C 26,7 C 61 % 1012,8 hPa 0,0 l/m 7,2 km/h (2 Bft) SO 135 15,0 C 22,6 C 22,2 km/h (4 Bft)
18.06.2019 10:56 23,2 C 27,5 C 61 % 1012,8 hPa 0,0 l/m 6,8 km/h (2 Bft) NW 315 15,3 C 23,1 C 22,2 km/h (4 Bft)
18.06.2019 10:54 23,1 C 27,3 C 61 % 1013,1 hPa 0,0 l/m 6,5 km/h (2 Bft) S 180 15,2 C 23,1 C 13,0 km/h (3 Bft)
18.06.2019 10:52 22,9 C 26,9 C 62 % 1013,1 hPa 0,0 l/m 6,8 km/h (2 Bft) W-SW 247 15,2 C 22,8 C 13,0 km/h (3 Bft)
18.06.2019 10:50 22,7 C 27,2 C 62 % 1013,1 hPa 0,0 l/m 7,2 km/h (2 Bft) SO 135 15,0 C 22,4 C 9,9 km/h (2 Bft)
18.06.2019 10:48 22,8 C 27,3 C 62 % 1013,1 hPa 0,0 l/m 7,2 km/h (2 Bft) W 270 15,1 C 22,5 C 9,9 km/h (2 Bft)
18.06.2019 10:46 22,8 C 27,0 C 62 % 1013,1 hPa 0,0 l/m 7,5 km/h (2 Bft) S-SW 202 15,1 C 22,4 C 18,6 km/h (3 Bft)
18.06.2019 10:44 22,8 C 27,2 C 62 % 1013,1 hPa 0,0 l/m 6,8 km/h (2 Bft) O-SO 112 15,1 C 22,7 C 10,9 km/h (2 Bft)
18.06.2019 10:42 22,8 C 27,8 C 62 % 1013,1 hPa 0,0 l/m 6,3 km/h (2 Bft) SO 135 15,1 C 22,8 C 6,5 km/h (2 Bft)
18.06.2019 10:40 22,7 C 27,7 C 62 % 1013,1 hPa 0,0 l/m 6,3 km/h (2 Bft) S-SO 157 15,0 C 22,7 C 6,5 km/h (2 Bft)
18.06.2019 10:38 22,8 C 28,0 C 62 % 1013,1 hPa 0,0 l/m 6,5 km/h (2 Bft) N-NW 337 15,1 C 22,8 C 11,1 km/h (2 Bft)
18.06.2019 10:36 22,7 C 27,8 C 62 % 1013,1 hPa 0,0 l/m 7,0 km/h (2 Bft) SO 135 15,0 C 22,5 C 11,1 km/h (2 Bft)
18.06.2019 10:34 22,7 C 28,1 C 63 % 1013,1 hPa 0,0 l/m 6,8 km/h (2 Bft) NO 45 15,3 C 22,6 C 9,4 km/h (2 Bft)
18.06.2019 10:32 22,7 C 27,9 C 63 % 1013,1 hPa 0,0 l/m 7,2 km/h (2 Bft) W-NW 292 15,3 C 22,4 C 9,4 km/h (2 Bft)
18.06.2019 10:30 22,8 C 28,1 C 63 % 1013,1 hPa 0,0 l/m 6,5 km/h (2 Bft) NO 45 15,4 C 22,8 C 14,2 km/h (3 Bft)
18.06.2019 10:28 22,7 C 28,4 C 63 % 1013,1 hPa 0,0 l/m 6,3 km/h (2 Bft) O-NO 67 15,3 C 22,7 C 14,2 km/h (3 Bft)
18.06.2019 10:26 22,8 C 28,5 C 63 % 1013,1 hPa 0,0 l/m 5,3 km/h (1 Bft) O 90 15,4 C 22,8 C 8,7 km/h (2 Bft)
18.06.2019 10:24 22,7 C 28,1 C 63 % 1013,1 hPa 0,0 l/m 4,8 km/h (1 Bft) O 90 15,3 C 22,7 C 7,0 km/h (2 Bft)
18.06.2019 10:22 22,6 C 28,5 C 63 % 1013,1 hPa 0,0 l/m 4,3 km/h (1 Bft) O-NO 67 15,2 C 22,6 C 7,0 km/h (2 Bft)
18.06.2019 10:20 22,4 C 28,4 C 63 % 1013,1 hPa 0,0 l/m 4,6 km/h (1 Bft) SO 135 15,0 C 22,4 C 4,6 km/h (1 Bft)
18.06.2019 10:18 22,2 C 27,3 C 63 % 1013,1 hPa 0,0 l/m 5,8 km/h (2 Bft) S 180 14,8 C 22,2 C 6,3 km/h (2 Bft)
18.06.2019 10:16 22,0 C 26,9 C 63 % 1013,1 hPa 0,0 l/m 6,5 km/h (2 Bft) O-NO 67 14,6 C 22,0 C 7,5 km/h (2 Bft)
18.06.2019 10:14 21,9 C 26,4 C 64 % 1012,9 hPa 0,0 l/m 6,8 km/h (2 Bft) SO 135 14,8 C 21,8 C 8,4 km/h (2 Bft)
18.06.2019 10:12 21,9 C 26,2 C 64 % 1012,9 hPa 0,0 l/m 7,2 km/h (2 Bft) NO 45 14,8 C 21,6 C 9,9 km/h (2 Bft)
18.06.2019 10:10 21,6 C 24,9 C 64 % 1012,9 hPa 0,0 l/m 7,0 km/h (2 Bft) SO 135 14,5 C 21,4 C 16,2 km/h (3 Bft)
18.06.2019 10:08 21,7 C 24,6 C 63 % 1012,9 hPa 0,0 l/m 6,3 km/h (2 Bft) SO 135 14,3 C 21,7 C 16,2 km/h (3 Bft)
18.06.2019 10:06 21,9 C 25,7 C 65 % 1012,9 hPa 0,0 l/m 5,6 km/h (1 Bft) O-SO 112 15,0 C 21,9 C 13,5 km/h (3 Bft)
18.06.2019 10:04 21,9 C 25,4 C 65 % 1012,9 hPa 0,0 l/m 5,8 km/h (2 Bft) SO 135 15,0 C 21,9 C 12,6 km/h (3 Bft)
18.06.2019 10:02 22,0 C 26,0 C 65 % 1012,9 hPa 0,0 l/m 5,3 km/h (1 Bft) O-NO 67 15,1 C 22,0 C 8,2 km/h (2 Bft)
18.06.2019 10:00 21,9 C 25,7 C 66 % 1012,9 hPa 0,0 l/m 5,6 km/h (1 Bft) N-NO 22 15,3 C 21,9 C 8,2 km/h (2 Bft)
18.06.2019 09:58 21,9 C 25,8 C 66 % 1012,9 hPa 0,0 l/m 5,6 km/h (1 Bft) NO 45 15,3 C 21,9 C 9,4 km/h (2 Bft)
18.06.2019 09:56 21,8 C 25,6 C 66 % 1012,9 hPa 0,0 l/m 5,3 km/h (1 Bft) O-SO 112 15,2 C 21,8 C 9,4 km/h (2 Bft)
18.06.2019 09:54 21,7 C 25,6 C 66 % 1013,0 hPa 0,0 l/m 5,1 km/h (1 Bft) SO 135 15,1 C 21,7 C 9,4 km/h (2 Bft)
18.06.2019 09:52 21,6 C 26,2 C 66 % 1013,0 hPa 0,0 l/m 4,6 km/h (1 Bft) S-SO 157 15,0 C 21,6 C 11,1 km/h (2 Bft)
18.06.2019 09:50 21,7 C 25,8 C 67 % 1013,0 hPa 0,0 l/m 4,6 km/h (1 Bft) S 180 15,3 C 21,7 C 11,1 km/h (2 Bft)
18.06.2019 09:48 21,6 C 25,7 C 67 % 1013,0 hPa 0,0 l/m 4,6 km/h (1 Bft) O-SO 112 15,2 C 21,6 C 8,7 km/h (2 Bft)
18.06.2019 09:46 21,5 C 25,9 C 67 % 1013,0 hPa 0,0 l/m 4,8 km/h (1 Bft) W-NW 292 15,1 C 21,5 C 5,8 km/h (2 Bft)
18.06.2019 09:44 21,4 C 25,5 C 67 % 1013,0 hPa 0,0 l/m 5,6 km/h (1 Bft) NO 45 15,0 C 21,4 C 4,1 km/h (1 Bft)
18.06.2019 09:42 21,3 C 26,0 C 68 % 1013,0 hPa 0,0 l/m 5,8 km/h (2 Bft) O-NO 67 15,1 C 21,3 C 6,0 km/h (2 Bft)
18.06.2019 09:40 21,1 C 25,5 C 68 % 1013,0 hPa 0,0 l/m 5,6 km/h (1 Bft) S 180 15,0 C 21,1 C 6,8 km/h (2 Bft)
18.06.2019 09:38 21,1 C 25,3 C 68 % 1013,0 hPa 0,0 l/m 5,3 km/h (1 Bft) N-NO 22 15,0 C 21,1 C 7,2 km/h (2 Bft)
18.06.2019 09:36 21,1 C 25,9 C 68 % 1013,0 hPa 0,0 l/m 5,6 km/h (1 Bft) W-SW 247 15,0 C 21,1 C 7,2 km/h (2 Bft)
18.06.2019 09:34 20,9 C 25,3 C 68 % 1012,9 hPa 0,0 l/m 5,6 km/h (1 Bft) O-SO 112 14,8 C 20,9 C 6,0 km/h (2 Bft)
18.06.2019 09:32 21,0 C 25,9 C 68 % 1012,9 hPa 0,0 l/m 6,0 km/h (2 Bft) O 90 14,9 C 21,0 C 6,0 km/h (2 Bft)
18.06.2019 09:30 20,9 C 25,7 C 69 % 1012,9 hPa 0,0 l/m 6,3 km/h (2 Bft) O-NO 67 15,0 C 20,9 C 8,0 km/h (2 Bft)
18.06.2019 09:28 20,8 C 25,8 C 69 % 1012,9 hPa 0,0 l/m 6,3 km/h (2 Bft) SO 135 14,9 C 20,8 C 8,2 km/h (2 Bft)
18.06.2019 09:26 20,8 C 24,9 C 69 % 1012,9 hPa 0,0 l/m 6,3 km/h (2 Bft) NO 45 14,9 C 20,8 C 17,1 km/h (3 Bft)
18.06.2019 09:24 20,7 C 25,2 C 69 % 1012,9 hPa 0,0 l/m 5,6 km/h (1 Bft) SO 135 14,8 C 20,7 C 12,6 km/h (3 Bft)
18.06.2019 09:22 20,4 C 25,1 C 69 % 1012,9 hPa 0,0 l/m 5,3 km/h (1 Bft) SO 135 14,5 C 20,4 C 12,6 km/h (3 Bft)
18.06.2019 09:20 20,7 C 24,9 C 69 % 1012,9 hPa 0,0 l/m 5,1 km/h (1 Bft) SO 135 14,8 C 20,7 C 9,7 km/h (2 Bft)
18.06.2019 09:18 20,7 C 25,2 C 70 % 1012,9 hPa 0,0 l/m 4,3 km/h (1 Bft) O-SO 112 15,0 C 20,7 C 8,0 km/h (2 Bft)
18.06.2019 09:16 20,8 C 26,5 C 70 % 1012,9 hPa 0,0 l/m 4,3 km/h (1 Bft) O-NO 67 15,1 C 20,8 C 5,8 km/h (2 Bft)
18.06.2019 09:14 20,4 C 25,7 C 70 % 1013,1 hPa 0,0 l/m 4,1 km/h (1 Bft) O 90 14,7 C 20,4 C 5,1 km/h (1 Bft)
18.06.2019 09:12 20,2 C 25,1 C 70 % 1013,1 hPa 0,0 l/m 4,1 km/h (1 Bft) NW 315 14,5 C 20,2 C 9,4 km/h (2 Bft)
18.06.2019 09:10 20,2 C 25,2 C 70 % 1013,1 hPa 0,0 l/m 4,1 km/h (1 Bft) SO 135 14,5 C 20,2 C 9,4 km/h (2 Bft)
18.06.2019 09:08 20,3 C 25,2 C 71 % 1013,1 hPa 0,0 l/m 4,3 km/h (1 Bft) N-NO 22 14,9 C 20,3 C 5,8 km/h (2 Bft)
18.06.2019 09:06 20,3 C 25,5 C 71 % 1013,1 hPa 0,0 l/m 4,3 km/h (1 Bft) NO 45 14,9 C 20,3 C 6,0 km/h (2 Bft)
18.06.2019 09:04 20,2 C 25,5 C 71 % 1013,1 hPa 0,0 l/m 4,6 km/h (1 Bft) O-NO 67 14,8 C 20,2 C 8,9 km/h (2 Bft)
18.06.2019 09:02 19,9 C 24,8 C 71 % 1013,1 hPa 0,0 l/m 4,8 km/h (1 Bft) NO 45 14,5 C 19,9 C 8,9 km/h (2 Bft)
18.06.2019 09:00 19,8 C 23,5 C 71 % 1013,1 hPa 0,0 l/m 4,8 km/h (1 Bft) NO 45 14,4 C 19,8 C 6,5 km/h (2 Bft)
18.06.2019 08:58 19,7 C 23,3 C 72 % 1013,1 hPa 0,0 l/m 4,6 km/h (1 Bft) N-NO 22 14,5 C 19,7 C 6,0 km/h (2 Bft)
18.06.2019 08:56 19,7 C 23,3 C 72 % 1013,1 hPa 0,0 l/m 4,6 km/h (1 Bft) S-SO 157 14,5 C 19,7 C 8,0 km/h (2 Bft)
18.06.2019 08:54 19,9 C 23,3 C 72 % 1012,9 hPa 0,0 l/m 5,1 km/h (1 Bft) NO 45 14,7 C 19,9 C 8,0 km/h (2 Bft)
18.06.2019 08:52 19,8 C 23,7 C 72 % 1012,9 hPa 0,0 l/m 4,6 km/h (1 Bft) NO 45 14,6 C 19,8 C 6,3 km/h (2 Bft)
18.06.2019 08:50 19,3 C 23,0 C 72 % 1012,9 hPa 0,0 l/m 4,3 km/h (1 Bft) N 360 14,1 C 19,3 C 9,4 km/h (2 Bft)
18.06.2019 08:48 19,3 C 22,8 C 72 % 1012,9 hPa 0,0 l/m 4,3 km/h (1 Bft) SO 135 14,1 C 19,3 C 9,4 km/h (2 Bft)
18.06.2019 08:46 19,4 C 22,8 C 72 % 1012,9 hPa 0,0 l/m 4,8 km/h (1 Bft) O-NO 67 14,2 C 19,4 C 8,0 km/h (2 Bft)
18.06.2019 08:44 19,6 C 24,3 C 73 % 1012,9 hPa 0,0 l/m 4,6 km/h (1 Bft) S-SO 157 14,6 C 19,6 C 8,0 km/h (2 Bft)
18.06.2019 08:42 19,4 C 23,6 C 73 % 1012,9 hPa 0,0 l/m 4,1 km/h (1 Bft) N-NW 337 14,4 C 19,4 C 4,6 km/h (1 Bft)
18.06.2019 08:40 19,3 C 23,9 C 73 % 1012,9 hPa 0,0 l/m 4,6 km/h (1 Bft) N 360 14,3 C 19,3 C 4,8 km/h (1 Bft)
18.06.2019 08:38 19,1 C 23,7 C 73 % 1012,9 hPa 0,0 l/m 4,8 km/h (1 Bft) SO 135 14,1 C 19,1 C 8,7 km/h (2 Bft)
18.06.2019 08:36 19,2 C 24,3 C 73 % 1012,9 hPa 0,0 l/m 4,1 km/h (1 Bft) O-NO 67 14,2 C 19,2 C 9,2 km/h (2 Bft)
18.06.2019 08:34 18,9 C 24,1 C 74 % 1013,1 hPa 0,0 l/m 3,9 km/h (1 Bft) NO 45 14,2 C 18,9 C 9,2 km/h (2 Bft)
18.06.2019 08:32 18,9 C 24,2 C 74 % 1013,1 hPa 0,0 l/m 3,6 km/h (1 Bft) O-NO 67 14,2 C 18,9 C 4,8 km/h (1 Bft)
18.06.2019 08:30 18,7 C 23,5 C 74 % 1013,1 hPa 0,0 l/m 3,1 km/h (1 Bft) SO 135 14,0 C 18,7 C 8,0 km/h (2 Bft)
18.06.2019 08:28 18,6 C 23,2 C 74 % 1013,1 hPa 0,0 l/m 2,7 km/h (1 Bft) O-SO 112 13,9 C 18,6 C 8,0 km/h (2 Bft)
18.06.2019 08:26 18,4 C 22,4 C 74 % 1013,1 hPa 0,0 l/m 2,9 km/h (1 Bft) O 90 13,7 C 18,4 C 6,3 km/h (2 Bft)
18.06.2019 08:24 18,4 C 22,1 C 74 % 1013,1 hPa 0,0 l/m 3,1 km/h (1 Bft) O 90 13,7 C 18,4 C 6,3 km/h (2 Bft)
18.06.2019 08:22 18,5 C 22,3 C 74 % 1013,1 hPa 0,0 l/m 2,9 km/h (1 Bft) O-SO 112 13,8 C 18,5 C 5,6 km/h (1 Bft)
18.06.2019 08:20 18,3 C 22,1 C 74 % 1013,1 hPa 0,0 l/m 3,4 km/h (1 Bft) O 90 13,6 C 18,3 C 5,6 km/h (1 Bft)
18.06.2019 08:18 18,2 C 21,5 C 74 % 1013,1 hPa 0,0 l/m 3,4 km/h (1 Bft) O-SO 112 13,5 C 18,2 C 3,6 km/h (1 Bft)
18.06.2019 08:16 18,0 C 20,6 C 74 % 1013,1 hPa 0,0 l/m 3,1 km/h (1 Bft) O-NO 67 13,3 C 18,0 C 5,6 km/h (1 Bft)
18.06.2019 08:14 18,0 C 20,5 C 74 % 1012,9 hPa 0,0 l/m 3,1 km/h (1 Bft) S-SO 157 13,3 C 18,0 C 5,6 km/h (1 Bft)
18.06.2019 08:12 18,1 C 20,6 C 74 % 1012,9 hPa 0,0 l/m 2,9 km/h (1 Bft) N-NW 337 13,4 C 18,1 C 4,6 km/h (1 Bft)
18.06.2019 08:10 18,1 C 20,2 C 74 % 1012,9 hPa 0,0 l/m 2,9 km/h (1 Bft) SO 135 13,4 C 18,1 C 5,1 km/h (1 Bft)
18.06.2019 08:08 18,0 C 19,8 C 74 % 1012,9 hPa 0,0 l/m 2,7 km/h (1 Bft) SO 135 13,3 C 18,0 C 5,1 km/h (1 Bft)
18.06.2019 08:06 17,8 C 19,3 C 74 % 1012,9 hPa 0,0 l/m 2,7 km/h (1 Bft) NO 45 13,1 C 17,8 C 4,1 km/h (1 Bft)
18.06.2019 08:04 17,8 C 19,3 C 74 % 1012,9 hPa 0,0 l/m 3,1 km/h (1 Bft) O-NO 67 13,1 C 17,8 C 4,1 km/h (1 Bft)
18.06.2019 08:02 17,8 C 20,0 C 74 % 1012,9 hPa 0,0 l/m 3,4 km/h (1 Bft) O-SO 112 13,1 C 17,8 C 4,3 km/h (1 Bft)
18.06.2019 08:00 17,8 C 20,0 C 74 % 1012,9 hPa 0,0 l/m 3,4 km/h (1 Bft) O-SO 112 13,1 C 17,8 C 4,3 km/h (1 Bft)
18.06.2019 07:58 17,7 C 19,9 C 74 % 1012,9 hPa 0,0 l/m 3,4 km/h (1 Bft) O-SO 112 13,0 C 17,7 C 3,4 km/h (1 Bft)
18.06.2019 07:56 17,7 C 19,6 C 74 % 1012,9 hPa 0,0 l/m 3,9 km/h (1 Bft) SO 135 13,0 C 17,7 C 3,4 km/h (1 Bft)
18.06.2019 07:54 17,6 C 19,5 C 74 % 1012,9 hPa 0,0 l/m 3,9 km/h (1 Bft) SO 135 12,9 C 17,6 C 4,3 km/h (1 Bft)
18.06.2019 07:52 17,6 C 18,8 C 74 % 1012,9 hPa 0,0 l/m 3,6 km/h (1 Bft) SO 135 12,9 C 17,6 C 6,5 km/h (2 Bft)
18.06.2019 07:50 17,5 C 18,3 C 74 % 1012,9 hPa 0,0 l/m 3,4 km/h (1 Bft) O-SO 112 12,8 C 17,5 C 6,5 km/h (2 Bft)
18.06.2019 07:48 17,6 C 18,5 C 74 % 1012,9 hPa 0,0 l/m 3,4 km/h (1 Bft) SO 135 12,9 C 17,6 C 4,8 km/h (1 Bft)
18.06.2019 07:46 17,7 C 18,6 C 74 % 1012,9 hPa 0,0 l/m 3,1 km/h (1 Bft) NO 45 13,0 C 17,7 C 4,6 km/h (1 Bft)
18.06.2019 07:44 17,7 C 18,9 C 74 % 1012,9 hPa 0,0 l/m 2,4 km/h (1 Bft) O-SO 112 13,0 C 17,7 C 4,6 km/h (1 Bft)
18.06.2019 07:42 17,8 C 18,6 C 74 % 1012,9 hPa 0,0 l/m 2,4 km/h (1 Bft) O-NO 67 13,1 C 17,8 C 4,6 km/h (1 Bft)
18.06.2019 07:40 17,8 C 18,3 C 74 % 1012,9 hPa 0,0 l/m 2,4 km/h (1 Bft) O-SO 112 13,1 C 17,8 C 4,6 km/h (1 Bft)
18.06.2019 07:38 17,9 C 18,3 C 74 % 1012,9 hPa 0,0 l/m 2,2 km/h (1 Bft) SO 135 13,2 C 17,9 C 4,6 km/h (1 Bft)
18.06.2019 07:36 17,9 C 18,2 C 74 % 1012,9 hPa 0,0 l/m 2,2 km/h (1 Bft) O-SO 112 13,2 C 17,9 C 3,6 km/h (1 Bft)
18.06.2019 07:34 18,0 C 18,6 C 74 % 1012,8 hPa 0,0 l/m 2,4 km/h (1 Bft) N-NW 337 13,3 C 18,0 C 4,8 km/h (1 Bft)
18.06.2019 07:32 18,0 C 18,6 C 74 % 1012,8 hPa 0,0 l/m 2,4 km/h (1 Bft) NO 45 13,3 C 18,0 C 4,8 km/h (1 Bft)
18.06.2019 07:30 18,0 C 18,7 C 74 % 1012,8 hPa 0,0 l/m 2,2 km/h (1 Bft) O-SO 112 13,3 C 18,0 C 3,6 km/h (1 Bft)
18.06.2019 07:28 18,2 C 18,8 C 74 % 1012,8 hPa 0,0 l/m 2,4 km/h (1 Bft) N-NO 22 13,5 C 18,2 C 3,6 km/h (1 Bft)
18.06.2019 07:26 18,2 C 19,3 C 74 % 1012,8 hPa 0,0 l/m 2,2 km/h (1 Bft) O-SO 112 13,5 C 18,2 C 4,3 km/h (1 Bft)
18.06.2019 07:24 18,3 C 20,0 C 74 % 1012,8 hPa 0,0 l/m 1,7 km/h (1 Bft) NO 45 13,6 C 18,3 C 4,3 km/h (1 Bft)
18.06.2019 07:22 18,3 C 20,9 C 74 % 1012,8 hPa 0,0 l/m 1,2 km/h (1 Bft) O 90 13,6 C 18,3 C 2,7 km/h (1 Bft)
18.06.2019 07:20 18,3 C 20,5 C 74 % 1012,8 hPa 0,0 l/m 1,0 km/h (0 Bft) O-SO 112 13,6 C 18,3 C 3,4 km/h (1 Bft)
18.06.2019 07:18 18,3 C 20,1 C 74 % 1012,8 hPa 0,0 l/m 1,4 km/h (1 Bft) N-NO 22 13,6 C 18,3 C 3,4 km/h (1 Bft)
18.06.2019 07:16 18,3 C 19,2 C 74 % 1012,8 hPa 0,0 l/m 1,7 km/h (1 Bft) NW 315 13,6 C 18,3 C 2,7 km/h (1 Bft)
18.06.2019 07:14 18,3 C 20,3 C 74 % 1012,8 hPa 0,0 l/m 1,9 km/h (1 Bft) NO 45 13,6 C 18,3 C 2,7 km/h (1 Bft)
18.06.2019 07:12 18,3 C 22,5 C 74 % 1012,8 hPa 0,0 l/m 1,9 km/h (1 Bft) O-NO 67 13,6 C 18,3 C 0,0 km/h (0 Bft)
18.06.2019 07:10 18,1 C 22,6 C 74 % 1012,8 hPa 0,0 l/m 2,4 km/h (1 Bft) O-SO 112 13,4 C 18,1 C 4,8 km/h (1 Bft)
18.06.2019 07:08 17,8 C 21,3 C 74 % 1012,8 hPa 0,0 l/m 2,2 km/h (1 Bft) NO 45 13,1 C 17,8 C 4,8 km/h (1 Bft)
18.06.2019 07:06 17,6 C 20,2 C 74 % 1012,8 hPa 0,0 l/m 1,7 km/h (1 Bft) N-NO 22 12,9 C 17,6 C 3,9 km/h (1 Bft)
18.06.2019 07:04 17,5 C 19,0 C 74 % 1012,8 hPa 0,0 l/m 1,7 km/h (1 Bft) O-NO 67 12,8 C 17,5 C 2,9 km/h (1 Bft)
18.06.2019 07:02 17,6 C 19,1 C 74 % 1012,8 hPa 0,0 l/m 2,4 km/h (1 Bft) NO 45 12,9 C 17,6 C 2,9 km/h (1 Bft)
18.06.2019 07:00 17,7 C 19,2 C 74 % 1012,8 hPa 0,0 l/m 2,7 km/h (1 Bft) NW 315 13,0 C 17,7 C 2,9 km/h (1 Bft)
18.06.2019 06:58 17,7 C 19,5 C 74 % 1012,8 hPa 0,0 l/m 3,4 km/h (1 Bft) NO 45 13,0 C 17,7 C 3,6 km/h (1 Bft)
18.06.2019 06:56 17,6 C 21,2 C 75 % 1012,8 hPa 0,0 l/m 3,6 km/h (1 Bft) O-NO 67 13,1 C 17,6 C 4,6 km/h (1 Bft)
18.06.2019 06:54 17,6 C 21,4 C 75 % 1013,1 hPa 0,0 l/m 3,9 km/h (1 Bft) N-NO 22 13,1 C 17,6 C 4,6 km/h (1 Bft)
18.06.2019 06:52 17,4 C 21,0 C 75 % 1013,1 hPa 0,0 l/m 3,9 km/h (1 Bft) O-NO 67 12,9 C 17,4 C 3,9 km/h (1 Bft)
18.06.2019 06:50 17,4 C 21,4 C 75 % 1013,1 hPa 0,0 l/m 3,9 km/h (1 Bft) N 360 12,9 C 17,4 C 6,0 km/h (2 Bft)
18.06.2019 06:48 17,2 C 20,2 C 75 % 1013,1 hPa 0,0 l/m 3,9 km/h (1 Bft) N-NO 22 12,7 C 17,2 C 6,0 km/h (2 Bft)
18.06.2019 06:46 17,1 C 19,6 C 75 % 1013,1 hPa 0,0 l/m 4,6 km/h (1 Bft) O-NO 67 12,6 C 17,1 C 4,8 km/h (1 Bft)
18.06.2019 06:44 17,0 C 19,4 C 75 % 1013,1 hPa 0,0 l/m 4,3 km/h (1 Bft) SO 135 12,5 C 17,0 C 3,9 km/h (1 Bft)
18.06.2019 06:42 16,9 C 19,8 C 76 % 1013,1 hPa 0,0 l/m 3,9 km/h (1 Bft) O-NO 67 12,6 C 16,9 C 7,0 km/h (2 Bft)
18.06.2019 06:40 16,7 C 18,8 C 76 % 1013,1 hPa 0,0 l/m 3,1 km/h (1 Bft) O 90 12,4 C 16,7 C 7,0 km/h (2 Bft)
18.06.2019 06:38 16,6 C 18,0 C 76 % 1013,1 hPa 0,0 l/m 2,4 km/h (1 Bft) SO 135 12,3 C 16,6 C 11,1 km/h (2 Bft)
18.06.2019 06:36 16,6 C 18,0 C 76 % 1013,1 hPa 0,0 l/m 1,2 km/h (1 Bft) SO 135 12,3 C 16,6 C 11,1 km/h (2 Bft)
18.06.2019 06:34 16,6 C 18,8 C 77 % 1013,1 hPa 0,0 l/m 0,5 km/h (0 Bft) SO 135 12,5 C 16,6 C 4,3 km/h (1 Bft)
18.06.2019 06:32 16,4 C 18,8 C 77 % 1013,1 hPa 0,0 l/m 0,2 km/h (0 Bft) O-SO 112 12,4 C 16,4 C 0,0 km/h (0 Bft)
18.06.2019 06:30 16,2 C 17,7 C 77 % 1013,1 hPa 0,0 l/m 0,0 km/h (0 Bft) O-SO 112 12,2 C 16,2 C 0,0 km/h (0 Bft)
18.06.2019 06:28 16,1 C 17,7 C 77 % 1013,1 hPa 0,0 l/m 0,0 km/h (0 Bft) N-NO 22 12,1 C 16,1 C 0,0 km/h (0 Bft)
18.06.2019 06:26 16,0 C 18,1 C 77 % 1013,1 hPa 0,0 l/m 0,2 km/h (0 Bft) NO 45 12,0 C 16,0 C 2,4 km/h (1 Bft)
18.06.2019 06:24 15,8 C 17,7 C 77 % 1013,1 hPa 0,0 l/m 0,2 km/h (0 Bft) O-SO 112 11,8 C 15,8 C 2,4 km/h (1 Bft)
18.06.2019 06:22 15,6 C 16,6 C 77 % 1013,1 hPa 0,0 l/m 0,2 km/h (0 Bft) S-SO 157 11,6 C 15,6 C 0,0 km/h (0 Bft)
18.06.2019 06:20 15,5 C 15,8 C 77 % 1013,1 hPa 0,0 l/m 0,2 km/h (0 Bft) N-NO 22 11,5 C 15,5 C 0,0 km/h (0 Bft)
18.06.2019 06:18 15,5 C 15,4 C 77 % 1013,1 hPa 0,0 l/m 0,5 km/h (0 Bft) S-SO 157 11,5 C 15,5 C 3,4 km/h (1 Bft)
18.06.2019 06:16 15,5 C 15,1 C 77 % 1013,1 hPa 0,0 l/m 1,4 km/h (1 Bft) W 270 11,5 C 15,5 C 3,4 km/h (1 Bft)
18.06.2019 06:14 15,5 C 15,4 C 77 % 1013,1 hPa 0,0 l/m 1,9 km/h (1 Bft) O-NO 67 11,5 C 15,5 C 0,0 km/h (0 Bft)
18.06.2019 06:12 15,4 C 15,4 C 77 % 1013,1 hPa 0,0 l/m 2,9 km/h (1 Bft) SO 135 11,4 C 15,4 C 0,0 km/h (0 Bft)
18.06.2019 06:10 15,4 C 15,0 C 78 % 1013,1 hPa 0,0 l/m 4,1 km/h (1 Bft) SO 135 11,6 C 15,4 C 2,9 km/h (1 Bft)
18.06.2019 06:08 15,3 C 14,9 C 78 % 1013,1 hPa 0,0 l/m 5,3 km/h (1 Bft) S-SW 202 11,5 C 15,3 C 6,5 km/h (2 Bft)
18.06.2019 06:06 15,3 C 14,9 C 78 % 1013,1 hPa 0,0 l/m 4,6 km/h (1 Bft) W-SW 247 11,5 C 15,3 C 6,5 km/h (2 Bft)
18.06.2019 06:04 15,3 C 15,0 C 78 % 1013,1 hPa 0,0 l/m 3,6 km/h (1 Bft) S-SW 202 11,5 C 15,3 C 6,8 km/h (2 Bft)
18.06.2019 06:02 15,3 C 15,0 C 78 % 1013,1 hPa 0,0 l/m 2,9 km/h (1 Bft) W-SW 247 11,5 C 15,3 C 8,4 km/h (2 Bft)
18.06.2019 06:00 15,3 C 15,2 C 77 % 1013,1 hPa 0,0 l/m 2,2 km/h (1 Bft) W-SW 247 11,3 C 15,3 C 8,4 km/h (2 Bft)
18.06.2019 05:58 15,2 C 15,4 C 77 % 1013,1 hPa 0,0 l/m 0,5 km/h (0 Bft) SW 225 11,2 C 15,2 C 8,0 km/h (2 Bft)
18.06.2019 05:56 15,1 C 15,0 C 77 % 1013,1 hPa 0,0 l/m 0,0 km/h (0 Bft) S 180 11,1 C 15,1 C 0,0 km/h (0 Bft)
18.06.2019 05:54 15,1 C 14,9 C 77 % 1012,9 hPa 0,0 l/m 0,0 km/h (0 Bft) N-NW 337 11,1 C 15,1 C 0,0 km/h (0 Bft)
18.06.2019 05:52 15,1 C 15,0 C 77 % 1012,9 hPa 0,0 l/m 0,0 km/h (0 Bft) N-NW 337 11,1 C 15,1 C 0,0 km/h (0 Bft)
18.06.2019 05:50 15,0 C 15,0 C 77 % 1012,9 hPa 0,0 l/m 0,0 km/h (0 Bft) N-NW 337 11,0 C 15,0 C 0,0 km/h (0 Bft)
18.06.2019 05:48 14,9 C 15,0 C 77 % 1012,9 hPa 0,0 l/m 0,0 km/h (0 Bft) N-NW 337 10,9 C 14,9 C 0,0 km/h (0 Bft)
18.06.2019 05:46 14,9 C 14,5 C 77 % 1012,9 hPa 0,0 l/m 0,0 km/h (0 Bft) N-NW 337 10,9 C 14,9 C 0,0 km/h (0 Bft)
18.06.2019 05:44 14,8 C 14,2 C 77 % 1012,9 hPa 0,0 l/m 0,2 km/h (0 Bft) N-NW 337 10,8 C 14,8 C 0,0 km/h (0 Bft)
18.06.2019 05:42 14,7 C 13,9 C 77 % 1012,9 hPa 0,0 l/m 0,2 km/h (0 Bft) NW 315 10,7 C 14,7 C 0,0 km/h (0 Bft)
18.06.2019 05:40 14,7 C 13,3 C 77 % 1012,9 hPa 0,0 l/m 0,2 km/h (0 Bft) NW 315 10,7 C 14,7 C 0,0 km/h (0 Bft)
18.06.2019 05:38 14,6 C 13,0 C 77 % 1012,9 hPa 0,0 l/m 0,2 km/h (0 Bft) W-SW 247 10,6 C 14,6 C 0,0 km/h (0 Bft)
18.06.2019 05:36 14,6 C 13,0 C 77 % 1012,9 hPa 0,0 l/m 0,2 km/h (0 Bft) SO 135 10,6 C 14,6 C 0,0 km/h (0 Bft)
18.06.2019 05:34 14,6 C 12,7 C 77 % 1013,0 hPa 0,0 l/m 0,0 km/h (0 Bft) SW 225 10,6 C 14,6 C 0,0 km/h (0 Bft)
18.06.2019 05:32 14,6 C 12,4 C 77 % 1013,0 hPa 0,0 l/m 0,0 km/h (0 Bft) S 180 10,6 C 14,6 C 0,0 km/h (0 Bft)
18.06.2019 05:30 14,6 C 12,3 C 77 % 1013,0 hPa 0,0 l/m 0,0 km/h (0 Bft) N-NO 22 10,6 C 14,6 C 0,0 km/h (0 Bft)
18.06.2019 05:28 14,7 C 12,2 C 77 % 1013,0 hPa 0,0 l/m 0,2 km/h (0 Bft) SO 135 10,7 C 14,7 C 0,0 km/h (0 Bft)
18.06.2019 05:26 14,7 C 12,3 C 77 % 1013,0 hPa 0,0 l/m 0,2 km/h (0 Bft) O-NO 67 10,7 C 14,7 C 0,0 km/h (0 Bft)
18.06.2019 05:24 14,7 C 12,4 C 77 % 1013,0 hPa 0,0 l/m 0,2 km/h (0 Bft) O-SO 112 10,7 C 14,7 C 0,0 km/h (0 Bft)
18.06.2019 05:22 14,8 C 12,7 C 77 % 1013,0 hPa 0,0 l/m 0,2 km/h (0 Bft) O-SO 112 10,8 C 14,8 C 0,0 km/h (0 Bft)
18.06.2019 05:20 14,7 C 12,8 C 77 % 1013,0 hPa 0,0 l/m 0,2 km/h (0 Bft) N-NW 337 10,7 C 14,7 C 0,0 km/h (0 Bft)
18.06.2019 05:18 14,8 C 12,8 C 77 % 1013,0 hPa 0,0 l/m 0,2 km/h (0 Bft) N 360 10,8 C 14,8 C 0,0 km/h (0 Bft)
18.06.2019 05:16 14,8 C 13,0 C 77 % 1013,0 hPa 0,0 l/m 0,2 km/h (0 Bft) NW 315 10,8 C 14,8 C 0,0 km/h (0 Bft)
18.06.2019 05:14 14,8 C 13,0 C 77 % 1012,9 hPa 0,0 l/m 0,5 km/h (0 Bft) N-NW 337 10,8 C 14,8 C 0,0 km/h (0 Bft)
18.06.2019 05:12 14,7 C 12,8 C 77 % 1012,9 hPa 0,0 l/m 0,5 km/h (0 Bft) W-NW 292 10,7 C 14,7 C 0,0 km/h (0 Bft)
18.06.2019 05:10 14,7 C 12,5 C 77 % 1012,9 hPa 0,0 l/m 0,5 km/h (0 Bft) W 270 10,7 C 14,7 C 2,9 km/h (1 Bft)
18.06.2019 05:08 14,7 C 12,6 C 77 % 1012,9 hPa 0,0 l/m 0,5 km/h (0 Bft) N-NW 337 10,7 C 14,7 C 2,9 km/h (1 Bft)
18.06.2019 05:06 14,7 C 12,4 C 77 % 1012,9 hPa 0,0 l/m 0,5 km/h (0 Bft) N-NO 22 10,7 C 14,7 C 2,4 km/h (1 Bft)
18.06.2019 05:04 14,7 C 12,1 C 77 % 1012,9 hPa 0,0 l/m 0,2 km/h (0 Bft) N-NW 337 10,7 C 14,7 C 0,0 km/h (0 Bft)
18.06.2019 05:02 14,7 C 11,7 C 77 % 1012,9 hPa 0,0 l/m 0,2 km/h (0 Bft) N-NO 22 10,7 C 14,7 C 2,4 km/h (1 Bft)
18.06.2019 05:00 14,6 C 11,7 C 77 % 1012,9 hPa 0,0 l/m 0,0 km/h (0 Bft) N-NW 337 10,6 C 14,6 C 2,4 km/h (1 Bft)
18.06.2019 04:58 14,6 C 11,5 C 77 % 1012,9 hPa 0,0 l/m 0,0 km/h (0 Bft) N-NW 337 10,6 C 14,6 C 0,0 km/h (0 Bft)
18.06.2019 04:56 14,6 C 11,5 C 77 % 1012,9 hPa 0,0 l/m 0,0 km/h (0 Bft) N-NO 22 10,6 C 14,6 C 0,0 km/h (0 Bft)
18.06.2019 04:54 14,6 C 11,5 C 77 % 1012,8 hPa 0,0 l/m 0,0 km/h (0 Bft) O-NO 67 10,6 C 14,6 C 0,0 km/h (0 Bft)
18.06.2019 04:52 14,6 C 11,6 C 77 % 1012,8 hPa 0,0 l/m 0,0 km/h (0 Bft) W-SW 247 10,6 C 14,6 C 0,0 km/h (0 Bft)
18.06.2019 04:50 14,7 C 11,6 C 76 % 1012,8 hPa 0,0 l/m 0,0 km/h (0 Bft) W 270 10,5 C 14,7 C 0,0 km/h (0 Bft)
18.06.2019 04:48 14,7 C 11,6 C 76 % 1012,8 hPa 0,0 l/m 0,0 km/h (0 Bft) W 270 10,5 C 14,7 C 0,0 km/h (0 Bft)
18.06.2019 04:46 14,6 C 11,8 C 76 % 1012,8 hPa 0,0 l/m 0,0 km/h (0 Bft) W-SW 247 10,4 C 14,6 C 0,0 km/h (0 Bft)
18.06.2019 04:44 14,6 C 11,4 C 76 % 1012,8 hPa 0,0 l/m 0,0 km/h (0 Bft) SW 225 10,4 C 14,6 C 0,0 km/h (0 Bft)
18.06.2019 04:42 14,6 C 11,4 C 76 % 1012,8 hPa 0,0 l/m 0,0 km/h (0 Bft) S-SW 202 10,4 C 14,6 C 0,0 km/h (0 Bft)
18.06.2019 04:40 14,7 C 11,3 C 76 % 1012,8 hPa 0,0 l/m 0,0 km/h (0 Bft) N-NO 22 10,5 C 14,7 C 0,0 km/h (0 Bft)
18.06.2019 04:38 14,7 C 11,2 C 76 % 1012,8 hPa 0,0 l/m 0,0 km/h (0 Bft) N-NO 22 10,5 C 14,7 C 0,0 km/h (0 Bft)
18.06.2019 04:36 14,8 C 11,3 C 76 % 1012,8 hPa 0,0 l/m 0,0 km/h (0 Bft) O-NO 67 10,6 C 14,8 C 0,0 km/h (0 Bft)
18.06.2019 04:34 14,8 C 11,3 C 76 % 1012,8 hPa 0,0 l/m 0,0 km/h (0 Bft) N 360 10,6 C 14,8 C 0,0 km/h (0 Bft)
18.06.2019 04:32 14,8 C 11,4 C 76 % 1012,8 hPa 0,0 l/m 0,0 km/h (0 Bft) O-NO 67 10,6 C 14,8 C 0,0 km/h (0 Bft)
18.06.2019 04:30 14,9 C 11,4 C 76 % 1012,8 hPa 0,0 l/m 0,0 km/h (0 Bft) NW 315 10,7 C 14,9 C 0,0 km/h (0 Bft)
18.06.2019 04:28 14,9 C 11,6 C 76 % 1012,8 hPa 0,0 l/m 0,0 km/h (0 Bft) N 360 10,7 C 14,9 C 0,0 km/h (0 Bft)
18.06.2019 04:26 15,0 C 12,1 C 76 % 1012,8 hPa 0,0 l/m 0,0 km/h (0 Bft) N 360 10,8 C 15,0 C 0,0 km/h (0 Bft)
18.06.2019 04:24 15,1 C 11,9 C 76 % 1012,8 hPa 0,0 l/m 0,0 km/h (0 Bft) NO 45 10,9 C 15,1 C 0,0 km/h (0 Bft)
18.06.2019 04:22 15,1 C 11,7 C 76 % 1012,8 hPa 0,0 l/m 0,0 km/h (0 Bft) W 270 10,9 C 15,1 C 0,0 km/h (0 Bft)
18.06.2019 04:20 15,1 C 11,8 C 76 % 1012,8 hPa 0,0 l/m 0,0 km/h (0 Bft) W 270 10,9 C 15,1 C 0,0 km/h (0 Bft)
18.06.2019 04:18 15,1 C 11,9 C 76 % 1012,8 hPa 0,0 l/m 0,0 km/h (0 Bft) W 270 10,9 C 15,1 C 0,0 km/h (0 Bft)
18.06.2019 04:16 15,0 C 11,7 C 75 % 1012,8 hPa 0,0 l/m 0,0 km/h (0 Bft) W 270 10,6 C 15,0 C 0,0 km/h (0 Bft)
18.06.2019 04:14 15,0 C 11,6 C 75 % 1013,0 hPa 0,0 l/m 0,0 km/h (0 Bft) W 270 10,6 C 15,0 C 0,0 km/h (0 Bft)
18.06.2019 04:12 15,0 C 11,7 C 75 % 1013,0 hPa 0,0 l/m 0,0 km/h (0 Bft) W 270 10,6 C 15,0 C 0,0 km/h (0 Bft)
18.06.2019 04:10 15,0 C 11,6 C 75 % 1013,0 hPa 0,0 l/m 0,0 km/h (0 Bft) W 270 10,6 C 15,0 C 0,0 km/h (0 Bft)
18.06.2019 04:08 15,0 C 11,7 C 75 % 1013,0 hPa 0,0 l/m 0,0 km/h (0 Bft) NO 45 10,6 C 15,0 C 0,0 km/h (0 Bft)
18.06.2019 04:06 15,1 C 11,7 C 75 % 1013,0 hPa 0,0 l/m 0,0 km/h (0 Bft) O-NO 67 10,7 C 15,1 C 0,0 km/h (0 Bft)
18.06.2019 04:04 15,0 C 11,7 C 75 % 1013,0 hPa 0,0 l/m 0,0 km/h (0 Bft) W-NW 292 10,6 C 15,0 C 0,0 km/h (0 Bft)
18.06.2019 04:02 15,0 C 11,4 C 75 % 1013,0 hPa 0,0 l/m 0,0 km/h (0 Bft) W 270 10,6 C 15,0 C 0,0 km/h (0 Bft)
18.06.2019 04:00 15,1 C 11,6 C 75 % 1013,0 hPa 0,0 l/m 0,0 km/h (0 Bft) S 180 10,7 C 15,1 C 0,0 km/h (0 Bft)
18.06.2019 03:58 15,1 C 11,5 C 75 % 1013,0 hPa 0,0 l/m 0,0 km/h (0 Bft) S 180 10,7 C 15,1 C 0,0 km/h (0 Bft)
18.06.2019 03:56 15,1 C 11,6 C 75 % 1013,0 hPa 0,0 l/m 0,0 km/h (0 Bft) S 180 10,7 C 15,1 C 0,0 km/h (0 Bft)
18.06.2019 03:54 15,1 C 11,7 C 75 % 1013,1 hPa 0,0 l/m 0,0 km/h (0 Bft) O-NO 67 10,7 C 15,1 C 0,0 km/h (0 Bft)
18.06.2019 03:52 15,2 C 11,8 C 75 % 1013,1 hPa 0,0 l/m 0,0 km/h (0 Bft) O-NO 67 10,8 C 15,2 C 0,0 km/h (0 Bft)
18.06.2019 03:50 15,2 C 12,0 C 75 % 1013,1 hPa 0,0 l/m 0,0 km/h (0 Bft) S-SO 157 10,8 C 15,2 C 0,0 km/h (0 Bft)
18.06.2019 03:48 15,2 C 12,0 C 75 % 1013,1 hPa 0,0 l/m 0,0 km/h (0 Bft) SO 135 10,8 C 15,2 C 0,0 km/h (0 Bft)
18.06.2019 03:46 15,2 C 11,7 C 75 % 1013,1 hPa 0,0 l/m 0,0 km/h (0 Bft) N-NW 337 10,8 C 15,2 C 0,0 km/h (0 Bft)
18.06.2019 03:44 15,3 C 11,7 C 75 % 1013,1 hPa 0,0 l/m 0,0 km/h (0 Bft) O-SO 112 10,9 C 15,3 C 0,0 km/h (0 Bft)
18.06.2019 03:42 15,3 C 11,8 C 75 % 1013,1 hPa 0,0 l/m 0,2 km/h (0 Bft) O-SO 112 10,9 C 15,3 C 0,0 km/h (0 Bft)
18.06.2019 03:40 15,4 C 11,8 C 75 % 1013,1 hPa 0,0 l/m 0,2 km/h (0 Bft) O-SO 112 11,0 C 15,4 C 0,0 km/h (0 Bft)
18.06.2019 03:38 15,4 C 12,0 C 75 % 1013,1 hPa 0,0 l/m 0,2 km/h (0 Bft) O-SO 112 11,0 C 15,4 C 0,0 km/h (0 Bft)
18.06.2019 03:36 15,4 C 11,9 C 75 % 1013,1 hPa 0,0 l/m 0,2 km/h (0 Bft) NW 315 11,0 C 15,4 C 0,0 km/h (0 Bft)
18.06.2019 03:34 15,3 C 12,2 C 75 % 1013,2 hPa 0,0 l/m 0,2 km/h (0 Bft) W 270 10,9 C 15,3 C 0,0 km/h (0 Bft)
18.06.2019 03:32 15,2 C 11,7 C 75 % 1013,2 hPa 0,0 l/m 0,2 km/h (0 Bft) W-NW 292 10,8 C 15,2 C 0,0 km/h (0 Bft)
18.06.2019 03:30 15,2 C 11,7 C 75 % 1013,2 hPa 0,0 l/m 0,0 km/h (0 Bft) SO 135 10,8 C 15,2 C 0,0 km/h (0 Bft)
18.06.2019 03:28 15,2 C 11,6 C 75 % 1013,2 hPa 0,0 l/m 0,0 km/h (0 Bft) O-SO 112 10,8 C 15,2 C 0,0 km/h (0 Bft)
18.06.2019 03:26 15,2 C 11,7 C 75 % 1013,2 hPa 0,0 l/m 0,0 km/h (0 Bft) W-SW 247 10,8 C 15,2 C 0,0 km/h (0 Bft)
18.06.2019 03:24 15,2 C 12,0 C 75 % 1013,2 hPa 0,0 l/m 0,0 km/h (0 Bft) W-SW 247 10,8 C 15,2 C 2,4 km/h (1 Bft)
18.06.2019 03:22 15,2 C 11,7 C 75 % 1013,2 hPa 0,0 l/m 0,0 km/h (0 Bft) SW 225 10,8 C 15,2 C 2,4 km/h (1 Bft)
18.06.2019 03:20 15,2 C 11,6 C 75 % 1013,2 hPa 0,0 l/m 0,0 km/h (0 Bft) S-SW 202 10,8 C 15,2 C 0,0 km/h (0 Bft)
18.06.2019 03:18 15,2 C 11,6 C 74 % 1013,2 hPa 0,0 l/m 0,0 km/h (0 Bft) S 180 10,6 C 15,2 C 0,0 km/h (0 Bft)
18.06.2019 03:16 15,2 C 11,8 C 74 % 1013,2 hPa 0,0 l/m 0,0 km/h (0 Bft) SW 225 10,6 C 15,2 C 0,0 km/h (0 Bft)
18.06.2019 03:14 15,3 C 11,6 C 74 % 1013,4 hPa 0,0 l/m 0,0 km/h (0 Bft) SO 135 10,7 C 15,3 C 0,0 km/h (0 Bft)
18.06.2019 03:12 15,3 C 11,5 C 74 % 1013,4 hPa 0,0 l/m 0,0 km/h (0 Bft) SO 135 10,7 C 15,3 C 0,0 km/h (0 Bft)
18.06.2019 03:10 15,5 C 11,5 C 74 % 1013,4 hPa 0,0 l/m 0,0 km/h (0 Bft) SO 135 10,9 C 15,5 C 0,0 km/h (0 Bft)
18.06.2019 03:08 15,6 C 11,6 C 74 % 1013,4 hPa 0,0 l/m 0,0 km/h (0 Bft) S-SO 157 11,0 C 15,6 C 0,0 km/h (0 Bft)
18.06.2019 03:06 15,6 C 11,8 C 74 % 1013,4 hPa 0,0 l/m 0,0 km/h (0 Bft) O-NO 67 11,0 C 15,6 C 0,0 km/h (0 Bft)
18.06.2019 03:04 15,7 C 11,8 C 73 % 1013,4 hPa 0,0 l/m 0,0 km/h (0 Bft) O 90 10,9 C 15,7 C 0,0 km/h (0 Bft)
18.06.2019 03:02 15,8 C 11,8 C 73 % 1013,4 hPa 0,0 l/m 0,0 km/h (0 Bft) O-SO 112 11,0 C 15,8 C 0,0 km/h (0 Bft)
18.06.2019 03:00 15,8 C 11,9 C 74 % 1013,4 hPa 0,0 l/m 0,2 km/h (0 Bft) W-SW 247 11,2 C 15,8 C 0,0 km/h (0 Bft)
18.06.2019 02:58 15,9 C 12,1 C 74 % 1013,4 hPa 0,0 l/m 0,7 km/h (0 Bft) W-NW 292 11,3 C 15,9 C 0,0 km/h (0 Bft)
18.06.2019 02:56 15,9 C 12,6 C 74 % 1013,4 hPa 0,0 l/m 1,0 km/h (0 Bft) S 180 11,3 C 15,9 C 0,0 km/h (0 Bft)
18.06.2019 02:54 15,9 C 12,3 C 74 % 1013,6 hPa 0,0 l/m 1,0 km/h (0 Bft) N-NW 337 11,3 C 15,9 C 0,0 km/h (0 Bft)
18.06.2019 02:52 16,0 C 12,9 C 73 % 1013,6 hPa 0,0 l/m 1,0 km/h (0 Bft) W 270 11,2 C 16,0 C 2,4 km/h (1 Bft)
18.06.2019 02:50 16,1 C 12,7 C 73 % 1013,6 hPa 0,0 l/m 1,9 km/h (1 Bft) W-NW 292 11,3 C 16,1 C 4,1 km/h (1 Bft)
18.06.2019 02:48 16,2 C 12,6 C 73 % 1013,6 hPa 0,0 l/m 2,2 km/h (1 Bft) W 270 11,4 C 16,2 C 4,1 km/h (1 Bft)
18.06.2019 02:46 16,3 C 12,9 C 73 % 1013,6 hPa 0,0 l/m 2,4 km/h (1 Bft) SW 225 11,4 C 16,3 C 0,0 km/h (0 Bft)
18.06.2019 02:44 16,4 C 13,7 C 73 % 1013,6 hPa 0,0 l/m 3,9 km/h (1 Bft) SO 135 11,5 C 16,4 C 0,0 km/h (0 Bft)
18.06.2019 02:42 16,5 C 14,0 C 73 % 1013,6 hPa 0,0 l/m 5,3 km/h (1 Bft) W 270 11,6 C 16,5 C 4,3 km/h (1 Bft)
18.06.2019 02:40 16,6 C 14,2 C 73 % 1013,6 hPa 0,0 l/m 6,3 km/h (2 Bft) W-SW 247 11,7 C 16,6 C 4,3 km/h (1 Bft)
18.06.2019 02:38 16,7 C 15,0 C 73 % 1013,6 hPa 0,0 l/m 7,0 km/h (2 Bft) S-SW 202 11,8 C 16,4 C 5,3 km/h (1 Bft)
18.06.2019 02:36 16,7 C 15,4 C 73 % 1013,6 hPa 0,0 l/m 7,5 km/h (2 Bft) W 270 11,8 C 16,1 C 14,0 km/h (3 Bft)
18.06.2019 02:34 16,7 C 15,5 C 73 % 1014,1 hPa 0,0 l/m 8,4 km/h (2 Bft) S-SW 202 11,8 C 15,7 C 9,2 km/h (2 Bft)
18.06.2019 02:32 16,6 C 15,1 C 73 % 1014,1 hPa 0,0 l/m 8,2 km/h (2 Bft) SW 225 11,7 C 15,7 C 9,2 km/h (2 Bft)
18.06.2019 02:30 16,6 C 15,1 C 74 % 1014,1 hPa 0,0 l/m 8,4 km/h (2 Bft) SW 225 11,9 C 15,6 C 7,2 km/h (2 Bft)
18.06.2019 02:28 16,6 C 15,3 C 74 % 1014,1 hPa 0,0 l/m 8,2 km/h (2 Bft) W-SW 247 11,9 C 15,7 C 7,2 km/h (2 Bft)
18.06.2019 02:26 16,4 C 14,9 C 74 % 1014,1 hPa 0,0 l/m 7,0 km/h (2 Bft) S-SO 157 11,8 C 16,1 C 12,1 km/h (2 Bft)
18.06.2019 02:24 16,4 C 14,8 C 74 % 1014,1 hPa 0,0 l/m 6,5 km/h (2 Bft) W-SW 247 11,8 C 16,4 C 11,1 km/h (2 Bft)
18.06.2019 02:22 16,4 C 15,0 C 74 % 1014,1 hPa 0,0 l/m 5,8 km/h (2 Bft) SW 225 11,8 C 16,4 C 11,1 km/h (2 Bft)
18.06.2019 02:20 16,3 C 14,2 C 74 % 1014,1 hPa 0,0 l/m 5,6 km/h (1 Bft) SW 225 11,7 C 16,3 C 9,2 km/h (2 Bft)
18.06.2019 02:18 16,4 C 14,0 C 74 % 1014,1 hPa 0,0 l/m 5,1 km/h (1 Bft) W-SW 247 11,8 C 16,4 C 6,8 km/h (2 Bft)
18.06.2019 02:16 16,4 C 14,4 C 74 % 1014,1 hPa 0,0 l/m 5,1 km/h (1 Bft) S 180 11,8 C 16,4 C 7,7 km/h (2 Bft)
18.06.2019 02:14 16,3 C 14,2 C 74 % 1014,3 hPa 0,0 l/m 5,6 km/h (1 Bft) W-SW 247 11,7 C 16,3 C 7,7 km/h (2 Bft)
18.06.2019 02:12 16,2 C 14,2 C 74 % 1014,3 hPa 0,0 l/m 6,0 km/h (2 Bft) W-SW 247 11,6 C 16,2 C 7,5 km/h (2 Bft)
18.06.2019 02:10 16,3 C 14,1 C 74 % 1014,3 hPa 0,0 l/m 6,3 km/h (2 Bft) W-SW 247 11,7 C 16,3 C 6,8 km/h (2 Bft)
18.06.2019 02:08 16,3 C 14,4 C 74 % 1014,3 hPa 0,0 l/m 6,0 km/h (2 Bft) W-SW 247 11,7 C 16,3 C 5,8 km/h (2 Bft)
18.06.2019 02:06 16,4 C 14,5 C 74 % 1014,3 hPa 0,0 l/m 6,5 km/h (2 Bft) W 270 11,8 C 16,4 C 10,6 km/h (2 Bft)
18.06.2019 02:04 16,3 C 14,6 C 74 % 1014,3 hPa 0,0 l/m 6,5 km/h (2 Bft) SW 225 11,7 C 16,3 C 8,9 km/h (2 Bft)
18.06.2019 02:02 16,3 C 14,4 C 74 % 1014,3 hPa 0,0 l/m 6,3 km/h (2 Bft) SW 225 11,7 C 16,3 C 10,1 km/h (2 Bft)
18.06.2019 02:00 16,3 C 14,3 C 74 % 1014,3 hPa 0,0 l/m 5,6 km/h (1 Bft) W-SW 247 11,7 C 16,3 C 10,1 km/h (2 Bft)
18.06.2019 01:58 16,2 C 14,3 C 74 % 1014,3 hPa 0,0 l/m 5,1 km/h (1 Bft) W-SW 247 11,6 C 16,2 C 7,7 km/h (2 Bft)
18.06.2019 01:56 16,2 C 14,1 C 74 % 1014,3 hPa 0,0 l/m 5,1 km/h (1 Bft) SW 225 11,6 C 16,2 C 7,7 km/h (2 Bft)
18.06.2019 01:54 16,2 C 13,8 C 74 % 1014,3 hPa 0,0 l/m 4,8 km/h (1 Bft) W-SW 247 11,6 C 16,2 C 5,1 km/h (1 Bft)
18.06.2019 01:52 16,2 C 13,9 C 74 % 1014,3 hPa 0,0 l/m 5,1 km/h (1 Bft) SW 225 11,6 C 16,2 C 5,1 km/h (1 Bft)
18.06.2019 01:50 16,2 C 14,0 C 74 % 1014,3 hPa 0,0 l/m 5,3 km/h (1 Bft) SW 225 11,6 C 16,2 C 5,6 km/h (1 Bft)
18.06.2019 01:48 16,2 C 14,2 C 74 % 1014,3 hPa 0,0 l/m 5,3 km/h (1 Bft) SW 225 11,6 C 16,2 C 5,8 km/h (2 Bft)
18.06.2019 01:46 16,2 C 14,4 C 74 % 1014,3 hPa 0,0 l/m 5,1 km/h (1 Bft) S-SW 202 11,6 C 16,2 C 5,8 km/h (2 Bft)
18.06.2019 01:44 16,2 C 14,3 C 74 % 1014,3 hPa 0,0 l/m 5,1 km/h (1 Bft) W-SW 247 11,6 C 16,2 C 6,3 km/h (2 Bft)
18.06.2019 01:42 16,2 C 14,2 C 74 % 1014,3 hPa 0,0 l/m 5,1 km/h (1 Bft) W-SW 247 11,6 C 16,2 C 6,3 km/h (2 Bft)
18.06.2019 01:40 16,2 C 14,2 C 74 % 1014,3 hPa 0,0 l/m 5,1 km/h (1 Bft) W-SW 247 11,6 C 16,2 C 5,8 km/h (2 Bft)
18.06.2019 01:38 16,2 C 14,4 C 74 % 1014,3 hPa 0,0 l/m 4,1 km/h (1 Bft) W-SW 247 11,6 C 16,2 C 5,8 km/h (2 Bft)
18.06.2019 01:36 16,3 C 14,4 C 74 % 1014,3 hPa 0,0 l/m 3,4 km/h (1 Bft) W-SW 247 11,7 C 16,3 C 6,0 km/h (2 Bft)
18.06.2019 01:34 16,3 C 14,8 C 74 % 1014,5 hPa 0,0 l/m 3,6 km/h (1 Bft) W-SW 247 11,7 C 16,3 C 6,0 km/h (2 Bft)
18.06.2019 01:32 16,3 C 14,8 C 74 % 1014,5 hPa 0,0 l/m 3,1 km/h (1 Bft) W 270 11,7 C 16,3 C 5,8 km/h (2 Bft)
18.06.2019 01:30 16,2 C 14,8 C 74 % 1014,5 hPa 0,0 l/m 2,4 km/h (1 Bft) SW 225 11,6 C 16,2 C 5,8 km/h (2 Bft)
18.06.2019 01:28 16,3 C 14,8 C 74 % 1014,5 hPa 0,0 l/m 1,7 km/h (1 Bft) N-NO 22 11,7 C 16,3 C 5,1 km/h (1 Bft)
18.06.2019 01:26 16,3 C 14,6 C 74 % 1014,5 hPa 0,0 l/m 1,9 km/h (1 Bft) S 180 11,7 C 16,3 C 7,5 km/h (2 Bft)
18.06.2019 01:24 16,2 C 14,0 C 74 % 1014,5 hPa 0,0 l/m 1,7 km/h (1 Bft) W 270 11,6 C 16,2 C 5,6 km/h (1 Bft)
18.06.2019 01:22 16,2 C 14,1 C 74 % 1014,5 hPa 0,0 l/m 1,0 km/h (0 Bft) W-SW 247 11,6 C 16,2 C 3,6 km/h (1 Bft)
18.06.2019 01:20 16,2 C 14,3 C 74 % 1014,5 hPa 0,0 l/m 0,7 km/h (0 Bft) N-NO 22 11,6 C 16,2 C 0,0 km/h (0 Bft)
18.06.2019 01:18 16,3 C 14,3 C 74 % 1014,5 hPa 0,0 l/m 1,2 km/h (1 Bft) W-NW 292 11,7 C 16,3 C 0,0 km/h (0 Bft)
18.06.2019 01:16 16,3 C 14,3 C 74 % 1014,5 hPa 0,0 l/m 1,2 km/h (1 Bft) N-NW 337 11,7 C 16,3 C 5,1 km/h (1 Bft)
18.06.2019 01:14 16,3 C 13,9 C 74 % 1014,3 hPa 0,0 l/m 1,2 km/h (1 Bft) W 270 11,7 C 16,3 C 5,1 km/h (1 Bft)
18.06.2019 01:12 16,3 C 14,1 C 74 % 1014,3 hPa 0,0 l/m 1,2 km/h (1 Bft) NW 315 11,7 C 16,3 C 0,0 km/h (0 Bft)
18.06.2019 01:10 16,3 C 14,1 C 74 % 1014,3 hPa 0,0 l/m 1,9 km/h (1 Bft) W 270 11,7 C 16,3 C 0,0 km/h (0 Bft)
18.06.2019 01:08 16,3 C 14,2 C 74 % 1014,3 hPa 0,0 l/m 1,9 km/h (1 Bft) N-NW 337 11,7 C 16,3 C 0,0 km/h (0 Bft)
18.06.2019 01:06 16,3 C 14,6 C 74 % 1014,3 hPa 0,0 l/m 2,4 km/h (1 Bft) W-SW 247 11,7 C 16,3 C 3,9 km/h (1 Bft)
18.06.2019 01:04 16,3 C 14,6 C 74 % 1014,3 hPa 0,0 l/m 2,9 km/h (1 Bft) W-NW 292 11,7 C 16,3 C 3,9 km/h (1 Bft)
18.06.2019 01:02 16,3 C 14,5 C 74 % 1014,3 hPa 0,0 l/m 3,1 km/h (1 Bft) N-NW 337 11,7 C 16,3 C 4,8 km/h (1 Bft)
18.06.2019 01:00 16,3 C 14,3 C 74 % 1014,3 hPa 0,0 l/m 2,9 km/h (1 Bft) N-NW 337 11,7 C 16,3 C 4,8 km/h (1 Bft)
18.06.2019 00:58 16,3 C 14,3 C 74 % 1014,3 hPa 0,0 l/m 2,9 km/h (1 Bft) NW 315 11,7 C 16,3 C 3,6 km/h (1 Bft)
18.06.2019 00:56 16,2 C 13,9 C 74 % 1014,3 hPa 0,0 l/m 2,2 km/h (1 Bft) NW 315 11,6 C 16,2 C 3,6 km/h (1 Bft)
18.06.2019 00:54 16,2 C 13,9 C 74 % 1014,4 hPa 0,0 l/m 1,7 km/h (1 Bft) W 270 11,6 C 16,2 C 3,6 km/h (1 Bft)
18.06.2019 00:52 16,1 C 13,7 C 74 % 1014,4 hPa 0,0 l/m 1,2 km/h (1 Bft) O-NO 67 11,5 C 16,1 C 5,1 km/h (1 Bft)
18.06.2019 00:50 16,1 C 13,4 C 74 % 1014,4 hPa 0,0 l/m 0,7 km/h (0 Bft) S-SO 157 11,5 C 16,1 C 5,1 km/h (1 Bft)
18.06.2019 00:48 16,1 C 13,1 C 74 % 1014,4 hPa 0,0 l/m 0,2 km/h (0 Bft) N-NO 22 11,5 C 16,1 C 4,1 km/h (1 Bft)
18.06.2019 00:46 16,1 C 12,8 C 73 % 1014,4 hPa 0,0 l/m 0,0 km/h (0 Bft) N-NW 337 11,3 C 16,1 C 0,0 km/h (0 Bft)
18.06.2019 00:44 16,1 C 12,8 C 73 % 1014,4 hPa 0,0 l/m 0,5 km/h (0 Bft) SO 135 11,3 C 16,1 C 0,0 km/h (0 Bft)
18.06.2019 00:42 16,1 C 13,0 C 73 % 1014,4 hPa 0,0 l/m 0,7 km/h (0 Bft) SO 135 11,3 C 16,1 C 0,0 km/h (0 Bft)
18.06.2019 00:40 16,2 C 13,4 C 73 % 1014,4 hPa 0,0 l/m 0,7 km/h (0 Bft) SO 135 11,4 C 16,2 C 0,0 km/h (0 Bft)
18.06.2019 00:38 16,2 C 14,1 C 74 % 1014,4 hPa 0,0 l/m 1,7 km/h (1 Bft) SO 135 11,6 C 16,2 C 0,0 km/h (0 Bft)
18.06.2019 00:36 16,2 C 14,4 C 74 % 1014,4 hPa 0,0 l/m 1,9 km/h (1 Bft) SO 135 11,6 C 16,2 C 6,8 km/h (2 Bft)
18.06.2019 00:34 16,2 C 14,6 C 74 % 1014,4 hPa 0,0 l/m 1,9 km/h (1 Bft) SO 135 11,6 C 16,2 C 4,3 km/h (1 Bft)
18.06.2019 00:32 16,2 C 14,8 C 73 % 1014,4 hPa 0,0 l/m 1,7 km/h (1 Bft) SO 135 11,4 C 16,2 C 4,3 km/h (1 Bft)
18.06.2019 00:30 16,2 C 14,6 C 73 % 1014,4 hPa 0,0 l/m 1,4 km/h (1 Bft) SW 225 11,4 C 16,2 C 6,8 km/h (2 Bft)
18.06.2019 00:28 16,2 C 13,8 C 73 % 1014,4 hPa 0,0 l/m 1,0 km/h (0 Bft) W 270 11,4 C 16,2 C 6,8 km/h (2 Bft)
18.06.2019 00:26 16,2 C 13,7 C 73 % 1014,4 hPa 0,0 l/m 0,2 km/h (0 Bft) N-NO 22 11,4 C 16,2 C 4,3 km/h (1 Bft)
18.06.2019 00:24 16,2 C 13,6 C 73 % 1014,4 hPa 0,0 l/m 0,2 km/h (0 Bft) N-NW 337 11,4 C 16,2 C 4,3 km/h (1 Bft)
18.06.2019 00:22 16,3 C 13,8 C 73 % 1014,4 hPa 0,0 l/m 0,2 km/h (0 Bft) SO 135 11,4 C 16,3 C 0,0 km/h (0 Bft)
18.06.2019 00:20 16,3 C 13,7 C 73 % 1014,4 hPa 0,0 l/m 0,2 km/h (0 Bft) SO 135 11,4 C 16,3 C 0,0 km/h (0 Bft)
18.06.2019 00:18 16,3 C 13,7 C 73 % 1014,4 hPa 0,0 l/m 0,2 km/h (0 Bft) O-NO 67 11,4 C 16,3 C 0,0 km/h (0 Bft)
18.06.2019 00:16 16,3 C 14,3 C 73 % 1014,4 hPa 0,0 l/m 0,2 km/h (0 Bft) SO 135 11,4 C 16,3 C 0,0 km/h (0 Bft)
18.06.2019 00:14 16,3 C 14,4 C 73 % 1014,3 hPa 0,0 l/m 0,5 km/h (0 Bft) N-NO 22 11,4 C 16,3 C 2,7 km/h (1 Bft)
18.06.2019 00:12 16,3 C 14,5 C 73 % 1014,3 hPa 0,0 l/m 1,2 km/h (1 Bft) N-NW 337 11,4 C 16,3 C 2,7 km/h (1 Bft)
18.06.2019 00:10 16,3 C 14,4 C 73 % 1014,3 hPa 0,0 l/m 1,4 km/h (1 Bft) N-NW 337 11,4 C 16,3 C 3,4 km/h (1 Bft)
18.06.2019 00:08 16,4 C 14,5 C 73 % 1014,3 hPa 0,0 l/m 1,4 km/h (1 Bft) NW 315 11,5 C 16,4 C 3,4 km/h (1 Bft)
18.06.2019 00:06 16,4 C 14,6 C 73 % 1014,3 hPa 0,0 l/m 1,4 km/h (1 Bft) O-NO 67 11,5 C 16,4 C 3,4 km/h (1 Bft)
18.06.2019 00:04 16,4 C 14,0 C 73 % 1014,3 hPa 0,0 l/m 1,2 km/h (1 Bft) N-NO 22 11,5 C 16,4 C 3,4 km/h (1 Bft)
18.06.2019 00:02 16,4 C 14,0 C 73 % 1014,3 hPa 0,0 l/m 1,2 km/h (1 Bft) N-NO 22 11,5 C 16,4 C 3,4 km/h (1 Bft)
18.06.2019 00:00 16,4 C 14,1 C 73 % 1014,3 hPa 0,0 l/m 1,4 km/h (1 Bft) W-NW 292 11,5 C 16,4 C 2,7 km/h (1 Bft)
17.06.2019 23:58 16,4 C 14,5 C 73 % 1014,3 hPa 0,0 l/m 1,4 km/h (1 Bft) O-NO 67 11,5 C 16,4 C 0,0 km/h (0 Bft)
17.06.2019 23:56 16,4 C 14,7 C 73 % 1014,3 hPa 0,0 l/m 1,4 km/h (1 Bft) NW 315 11,5 C 16,4 C 0,0 km/h (0 Bft)
17.06.2019 23:54 16,5 C 14,9 C 73 % 1014,4 hPa 0,0 l/m 2,2 km/h (1 Bft) N-NO 22 11,6 C 16,5 C 2,9 km/h (1 Bft)
17.06.2019 23:52 16,5 C 15,1 C 73 % 1014,4 hPa 0,0 l/m 1,9 km/h (1 Bft) O-NO 67 11,6 C 16,5 C 5,1 km/h (1 Bft)
17.06.2019 23:50 16,5 C 15,0 C 73 % 1014,4 hPa 0,0 l/m 1,4 km/h (1 Bft) S-SO 157 11,6 C 16,5 C 5,1 km/h (1 Bft)
17.06.2019 23:48 16,5 C 14,9 C 73 % 1014,4 hPa 0,0 l/m 1,4 km/h (1 Bft) W-SW 247 11,6 C 16,5 C 0,0 km/h (0 Bft)
17.06.2019 23:46 16,4 C 15,3 C 73 % 1014,4 hPa 0,0 l/m 1,4 km/h (1 Bft) O 90 11,5 C 16,4 C 5,6 km/h (1 Bft)
17.06.2019 23:44 16,3 C 14,2 C 73 % 1014,4 hPa 0,0 l/m 1,0 km/h (0 Bft) S 180 11,4 C 16,3 C 5,6 km/h (1 Bft)
17.06.2019 23:42 16,3 C 13,9 C 73 % 1014,4 hPa 0,0 l/m 0,5 km/h (0 Bft) N-NO 22 11,4 C 16,3 C 0,0 km/h (0 Bft)
17.06.2019 23:40 16,2 C 14,1 C 73 % 1014,4 hPa 0,0 l/m 0,5 km/h (0 Bft) N-NO 22 11,4 C 16,2 C 5,1 km/h (1 Bft)
17.06.2019 23:38 16,2 C 13,7 C 73 % 1014,4 hPa 0,0 l/m 0,2 km/h (0 Bft) NO 45 11,4 C 16,2 C 5,1 km/h (1 Bft)
17.06.2019 23:36 16,2 C 14,0 C 73 % 1014,4 hPa 0,0 l/m 0,2 km/h (0 Bft) SO 135 11,4 C 16,2 C 0,0 km/h (0 Bft)
17.06.2019 23:34 16,3 C 13,4 C 73 % 1014,5 hPa 0,0 l/m 0,2 km/h (0 Bft) S-SO 157 11,4 C 16,3 C 0,0 km/h (0 Bft)
17.06.2019 23:32 16,3 C 13,6 C 72 % 1014,5 hPa 0,0 l/m 0,2 km/h (0 Bft) S-SO 157 11,2 C 16,3 C 0,0 km/h (0 Bft)
17.06.2019 23:30 16,3 C 14,0 C 72 % 1014,5 hPa 0,0 l/m 0,2 km/h (0 Bft) NO 45 11,2 C 16,3 C 0,0 km/h (0 Bft)
17.06.2019 23:28 16,3 C 14,2 C 72 % 1014,5 hPa 0,0 l/m 0,2 km/h (0 Bft) NO 45 11,2 C 16,3 C 0,0 km/h (0 Bft)
17.06.2019 23:26 16,4 C 13,6 C 72 % 1014,5 hPa 0,0 l/m 0,2 km/h (0 Bft) NW 315 11,3 C 16,4 C 0,0 km/h (0 Bft)
17.06.2019 23:24 16,4 C 13,5 C 72 % 1014,5 hPa 0,0 l/m 0,2 km/h (0 Bft) W-SW 247 11,3 C 16,4 C 2,7 km/h (1 Bft)
17.06.2019 23:22 16,4 C 13,3 C 72 % 1014,5 hPa 0,0 l/m 0,2 km/h (0 Bft) NW 315 11,3 C 16,4 C 2,7 km/h (1 Bft)
17.06.2019 23:20 16,4 C 13,5 C 72 % 1014,5 hPa 0,0 l/m 0,2 km/h (0 Bft) SO 135 11,3 C 16,4 C 0,0 km/h (0 Bft)
17.06.2019 23:18 16,4 C 13,5 C 72 % 1014,5 hPa 0,0 l/m 0,2 km/h (0 Bft) SO 135 11,3 C 16,4 C 2,4 km/h (1 Bft)
17.06.2019 23:16 16,4 C 13,6 C 72 % 1014,5 hPa 0,0 l/m 0,2 km/h (0 Bft) O-SO 112 11,3 C 16,4 C 2,4 km/h (1 Bft)
17.06.2019 23:14 16,4 C 13,9 C 72 % 1014,6 hPa 0,0 l/m 0,2 km/h (0 Bft) SO 135 11,3 C 16,4 C 0,0 km/h (0 Bft)
17.06.2019 23:12 16,4 C 14,0 C 72 % 1014,6 hPa 0,0 l/m 0,2 km/h (0 Bft) N-NO 22 11,3 C 16,4 C 0,0 km/h (0 Bft)
17.06.2019 23:10 16,5 C 14,2 C 72 % 1014,6 hPa 0,0 l/m 0,2 km/h (0 Bft) O-NO 67 11,4 C 16,5 C 0,0 km/h (0 Bft)
17.06.2019 23:08 16,5 C 14,1 C 72 % 1014,6 hPa 0,0 l/m 0,5 km/h (0 Bft) O 90 11,4 C 16,5 C 0,0 km/h (0 Bft)
17.06.2019 23:06 16,6 C 14,1 C 72 % 1014,6 hPa 0,0 l/m 0,7 km/h (0 Bft) O-SO 112 11,5 C 16,6 C 0,0 km/h (0 Bft)
17.06.2019 23:04 16,6 C 14,0 C 72 % 1014,6 hPa 0,0 l/m 0,7 km/h (0 Bft) O-SO 112 11,5 C 16,6 C 0,0 km/h (0 Bft)
17.06.2019 23:02 16,6 C 14,5 C 72 % 1014,6 hPa 0,0 l/m 1,0 km/h (0 Bft) NO 45 11,5 C 16,6 C 0,0 km/h (0 Bft)
17.06.2019 23:00 16,6 C 14,7 C 72 % 1014,6 hPa 0,0 l/m 1,0 km/h (0 Bft) N-NO 22 11,5 C 16,6 C 4,3 km/h (1 Bft)
17.06.2019 22:58 16,6 C 14,1 C 72 % 1014,6 hPa 0,0 l/m 1,0 km/h (0 Bft) NO 45 11,5 C 16,6 C 4,3 km/h (1 Bft)
17.06.2019 22:56 16,6 C 13,8 C 72 % 1014,6 hPa 0,0 l/m 0,5 km/h (0 Bft) N-NW 337 11,5 C 16,6 C 2,9 km/h (1 Bft)
17.06.2019 22:54 16,6 C 14,0 C 72 % 1014,7 hPa 0,0 l/m 0,5 km/h (0 Bft) NO 45 11,5 C 16,6 C 3,4 km/h (1 Bft)
17.06.2019 22:52 16,6 C 13,8 C 72 % 1014,7 hPa 0,0 l/m 0,2 km/h (0 Bft) W 270 11,5 C 16,6 C 3,4 km/h (1 Bft)
17.06.2019 22:50 16,6 C 14,1 C 72 % 1014,7 hPa 0,0 l/m 0,2 km/h (0 Bft) O-SO 112 11,5 C 16,6 C 0,0 km/h (0 Bft)
17.06.2019 22:48 16,6 C 14,2 C 72 % 1014,7 hPa 0,0 l/m 0,2 km/h (0 Bft) SO 135 11,5 C 16,6 C 2,7 km/h (1 Bft)
17.06.2019 22:46 16,6 C 14,2 C 72 % 1014,7 hPa 0,0 l/m 0,2 km/h (0 Bft) SO 135 11,5 C 16,6 C 2,7 km/h (1 Bft)
17.06.2019 22:44 16,6 C 14,4 C 72 % 1014,7 hPa 0,0 l/m 0,2 km/h (0 Bft) S 180 11,5 C 16,6 C 0,0 km/h (0 Bft)
17.06.2019 22:42 16,6 C 14,7 C 72 % 1014,7 hPa 0,0 l/m 0,5 km/h (0 Bft) O-NO 67 11,5 C 16,6 C 0,0 km/h (0 Bft)
17.06.2019 22:40 16,6 C 15,0 C 72 % 1014,7 hPa 0,0 l/m 0,7 km/h (0 Bft) N-NO 22 11,5 C 16,6 C 0,0 km/h (0 Bft)
17.06.2019 22:38 16,7 C 15,1 C 72 % 1014,7 hPa 0,0 l/m 0,7 km/h (0 Bft) O-SO 112 11,6 C 16,7 C 0,0 km/h (0 Bft)
17.06.2019 22:36 16,7 C 15,1 C 72 % 1014,7 hPa 0,0 l/m 1,0 km/h (0 Bft) O-NO 67 11,6 C 16,7 C 3,6 km/h (1 Bft)
17.06.2019 22:34 16,7 C 15,1 C 72 % 1014,6 hPa 0,0 l/m 1,4 km/h (1 Bft) W 270 11,6 C 16,7 C 3,6 km/h (1 Bft)
17.06.2019 22:32 16,7 C 15,0 C 72 % 1014,6 hPa 0,0 l/m 1,4 km/h (1 Bft) W 270 11,6 C 16,7 C 2,7 km/h (1 Bft)
17.06.2019 22:30 16,8 C 15,0 C 72 % 1014,6 hPa 0,0 l/m 1,4 km/h (1 Bft) NW 315 11,7 C 16,8 C 2,4 km/h (1 Bft)
17.06.2019 22:28 16,8 C 15,3 C 72 % 1014,6 hPa 0,0 l/m 1,4 km/h (1 Bft) N-NO 22 11,7 C 16,8 C 6,0 km/h (2 Bft)
17.06.2019 22:26 16,8 C 15,3 C 72 % 1014,6 hPa 0,0 l/m 1,7 km/h (1 Bft) NW 315 11,7 C 16,8 C 6,0 km/h (2 Bft)
17.06.2019 22:24 16,8 C 15,2 C 71 % 1014,6 hPa 0,0 l/m 1,2 km/h (1 Bft) W 270 11,5 C 16,8 C 4,8 km/h (1 Bft)
17.06.2019 22:22 16,8 C 15,1 C 71 % 1014,6 hPa 0,0 l/m 1,0 km/h (0 Bft) N-NW 337 11,5 C 16,8 C 4,1 km/h (1 Bft)
17.06.2019 22:20 16,8 C 15,0 C 71 % 1014,6 hPa 0,0 l/m 0,7 km/h (0 Bft) N-NW 337 11,5 C 16,8 C 5,1 km/h (1 Bft)
17.06.2019 22:18 16,8 C 14,9 C 71 % 1014,6 hPa 0,0 l/m 0,7 km/h (0 Bft) S-SW 202 11,5 C 16,8 C 5,1 km/h (1 Bft)
17.06.2019 22:16 16,8 C 14,6 C 71 % 1014,6 hPa 0,0 l/m 0,5 km/h (0 Bft) NO 45 11,5 C 16,8 C 3,1 km/h (1 Bft)
17.06.2019 22:14 16,8 C 14,8 C 71 % 1014,8 hPa 0,0 l/m 1,0 km/h (0 Bft) NO 45 11,5 C 16,8 C 0,0 km/h (0 Bft)
17.06.2019 22:12 16,8 C 15,3 C 71 % 1014,8 hPa 0,0 l/m 1,4 km/h (1 Bft) NO 45 11,5 C 16,8 C 0,0 km/h (0 Bft)
17.06.2019 22:10 16,8 C 15,2 C 71 % 1014,8 hPa 0,0 l/m 1,7 km/h (1 Bft) S-SO 157 11,5 C 16,8 C 3,9 km/h (1 Bft)
17.06.2019 22:08 16,8 C 15,1 C 71 % 1014,8 hPa 0,0 l/m 1,4 km/h (1 Bft) N-NW 337 11,5 C 16,8 C 3,9 km/h (1 Bft)
17.06.2019 22:06 16,8 C 15,4 C 71 % 1014,8 hPa 0,0 l/m 1,4 km/h (1 Bft) O-NO 67 11,5 C 16,8 C 4,3 km/h (1 Bft)
17.06.2019 22:04 16,8 C 15,6 C 71 % 1014,8 hPa 0,0 l/m 1,7 km/h (1 Bft) S-SO 157 11,5 C 16,8 C 4,3 km/h (1 Bft)
17.06.2019 22:02 16,8 C 14,9 C 71 % 1014,8 hPa 0,0 l/m 1,4 km/h (1 Bft) O-SO 112 11,5 C 16,8 C 3,6 km/h (1 Bft)
17.06.2019 22:00 16,8 C 14,7 C 71 % 1014,8 hPa 0,0 l/m 1,0 km/h (0 Bft) S-SO 157 11,5 C 16,8 C 0,0 km/h (0 Bft)
_ Min-Zeit 04:42 04:38 21:32 20:36 - 00:46 - - 04:42 04:42 22:00
Minimum _ 14,6 C 11,2 C 58 % 1011,2 hPa - 0,0 km/h (0 Bft) - - 10,4 C 14,6 C 0,0 km/h (0 Bft)
_ Max-Zeit 15:14 10:22 06:02 22:00 22:00 19:24 - - 15:08 15:14 19:16
Maximum _ 25,0 C 28,5 C 78 % 1014,8 hPa 0,0 l/m 17,9 km/h
S-SO (3 Bft)
- - 16,8 C 25,0 C 39,1 km/h
SW (6 Bft)
Durchschnitt _ 19,3 C 19,0 C 68 % 1013,0 hPa #0,0 l/m 4,1 km/h (1 Bft) SO - 13,1 C 19,0 C 6,9 km/h (2 Bft)